Observation data for Fort Chadbourne on 11/19/2019      Previous  Date       Current Mesonet Observations  Soil Data  Daily Summary Page  Observations in Plain Language
KCH1 190600Z 30004KT 07/05 A2997 RMK A01 T00700054  RH  089%=      5-min Rain = 0
KCH1 190601Z 30004KT 07/05 A2997 RMK A01 T00700054  RH  089%=      5-min Rain = 0
KCH1 190602Z 30003KT 07/05 A2997 RMK A01 T00700053  RH  089%=      5-min Rain = 0
KCH1 190603Z 30003KT 07/05 A2997 RMK A01 T00700054  RH  089%=      5-min Rain = 0
KCH1 190604Z 30003KT 07/05 A2997 RMK A01 T00700054  RH  089%=      5-min Rain = 0
KCH1 190605Z 30003KT 07/05 A2997 RMK A01 T00700054  RH  089%=      5-min Rain = 0
KCH1 190606Z 30003KT 07/05 A2997 RMK A01 T00700053  RH  089%=      5-min Rain = 0
KCH1 190607Z 30003KT 07/05 A2997 RMK A01 T00690053  RH  089%=      5-min Rain = 0
KCH1 190608Z 30003KT 07/05 A2997 RMK A01 T00690052  RH  089%=      5-min Rain = 0
KCH1 190609Z 30003KT 07/05 A2997 RMK A01 T00690053  RH  089%=      5-min Rain = 0
KCH1 190610Z 30004KT 07/05 A2997 RMK A01 T00690052  RH  089%=      5-min Rain = 0
KCH1 190611Z 30004KT 07/05 A2997 RMK A01 T00690052  RH  089%=      5-min Rain = 0
KCH1 190612Z 29004KT 07/05 A2997 RMK A01 T00690052  RH  089%=      5-min Rain = 0
KCH1 190613Z 30004KT 07/05 A2997 RMK A01 T00680051  RH  089%=      5-min Rain = 0
KCH1 190614Z 30005KT 07/05 A2997 RMK A01 T00680050  RH  089%=      5-min Rain = 0
KCH1 190615Z 29004KT 07/05 A2997 RMK A01 T00670050  RH  089%=      5-min Rain = 0
KCH1 190616Z 29005KT 07/05 A2997 RMK A01 T00670050  RH  089%=      5-min Rain = 0
KCH1 190617Z 30005KT 07/05 A2997 RMK A01 T00670050  RH  089%=      5-min Rain = 0
KCH1 190618Z 30005KT 07/05 A2997 RMK A01 T00660051  RH  090%=      5-min Rain = 0
KCH1 190619Z 30005KT 07/05 A2997 RMK A01 T00670051  RH  090%=      5-min Rain = 0
KCH1 190620Z 30006KT 07/05 A2997 RMK A01 T00660051  RH  090%=      5-min Rain = 0
KCH1 190621Z 30006KT 07/05 A2997 RMK A01 T00670051  RH  090%=      5-min Rain = 0
KCH1 190622Z 30006KT 07/05 A2997 RMK A01 T00670051  RH  089%=      5-min Rain = 0
KCH1 190623Z 30006KT 07/05 A2997 RMK A01 T00670050  RH  089%=      5-min Rain = 0
KCH1 190624Z 30006KT 07/05 A2997 RMK A01 T00670049  RH  088%=      5-min Rain = 0
KCH1 190625Z 30006KT 07/05 A2997 RMK A01 T00680048  RH  087%=      5-min Rain = 0
KCH1 190626Z 30005KT 07/05 A2997 RMK A01 T00670047  RH  087%=      5-min Rain = 0
KCH1 190627Z 30005KT 07/05 A2997 RMK A01 T00670047  RH  087%=      5-min Rain = 0
KCH1 190628Z 30005KT 07/05 A2997 RMK A01 T00670047  RH  087%=      5-min Rain = 0
KCH1 190629Z 30004KT 07/05 A2997 RMK A01 T00670047  RH  087%=      5-min Rain = 0
KCH1 190630Z 30004KT 07/05 A2997 RMK A01 T00670047  RH  087%=      5-min Rain = 0
KCH1 190631Z 31004KT 07/05 A2997 RMK A01 T00670047  RH  088%=      5-min Rain = 0
KCH1 190632Z 31004KT 07/05 A2997 RMK A01 T00670048  RH  088%=      5-min Rain = 0
KCH1 190633Z 31004KT 07/05 A2997 RMK A01 T00670048  RH  088%=      5-min Rain = 0
KCH1 190634Z 31003KT 07/05 A2997 RMK A01 T00670047  RH  087%=      5-min Rain = 0
KCH1 190635Z 31003KT 07/05 A2997 RMK A01 T00670047  RH  087%=      5-min Rain = 0
KCH1 190636Z 30003KT 07/05 A2997 RMK A01 T00670047  RH  087%=      5-min Rain = 0
KCH1 190637Z 31003KT 07/05 A2997 RMK A01 T00670047  RH  087%=      5-min Rain = 0
KCH1 190638Z 31003KT 07/05 A2997 RMK A01 T00670047  RH  087%=      5-min Rain = 0
KCH1 190639Z 31003KT 07/05 A2997 RMK A01 T00670047  RH  087%=      5-min Rain = 0
KCH1 190640Z 30003KT 07/05 A2997 RMK A01 T00660047  RH  087%=      5-min Rain = 0
KCH1 190641Z 29003KT 07/05 A2997 RMK A01 T00660047  RH  087%=      5-min Rain = 0
KCH1 190642Z 29003KT 07/05 A2997 RMK A01 T00660046  RH  088%=      5-min Rain = 0
KCH1 190643Z 29004KT 07/05 A2997 RMK A01 T00650046  RH  088%=      5-min Rain = 0
KCH1 190644Z 29004KT 07/05 A2997 RMK A01 T00650046  RH  088%=      5-min Rain = 0
KCH1 190645Z 29005KT 07/05 A2997 RMK A01 T00650047  RH  088%=      5-min Rain = 0
KCH1 190646Z 29005KT 07/05 A2997 RMK A01 T00650047  RH  088%=      5-min Rain = 0
KCH1 190647Z 29005KT 07/05 A2997 RMK A01 T00650047  RH  088%=      5-min Rain = 0
KCH1 190648Z 29005KT 07/05 A2997 RMK A01 T00650047  RH  088%=      5-min Rain = 0
KCH1 190649Z 30005KT 07/05 A2997 RMK A01 T00650047  RH  088%=      5-min Rain = 0
KCH1 190650Z 29005KT 06/05 A2997 RMK A01 T00640046  RH  088%=      5-min Rain = 0
KCH1 190651Z 29005KT 06/05 A2997 RMK A01 T00640046  RH  089%=      5-min Rain = 0
KCH1 190652Z 29004KT 06/05 A2997 RMK A01 T00640046  RH  089%=      5-min Rain = 0
KCH1 190653Z 29005KT 06/05 A2997 RMK A01 T00640046  RH  088%=      5-min Rain = 0
KCH1 190654Z 30005KT 06/05 A2997 RMK A01 T00640046  RH  088%=      5-min Rain = 0
KCH1 190655Z 30005KT 06/05 A2997 RMK A01 T00640045  RH  088%=      5-min Rain = 0
KCH1 190656Z 30006KT 06/05 A2997 RMK A01 T00640045  RH  088%=      5-min Rain = 0
KCH1 190657Z 30006KT 06/04 A2997 RMK A01 T00640044  RH  087%=      5-min Rain = 0
KCH1 190658Z 30005KT 06/04 A2997 RMK A01 T00640044  RH  087%=      5-min Rain = 0
KCH1 190659Z 30005KT 06/04 A2997 RMK A01 T00640043  RH  087%=      5-min Rain = 0
KCH1 190700Z 30004KT 06/04 A2997 RMK A01 T00640043  RH  086%=      5-min Rain = 0
KCH1 190701Z 30004KT 06/04 A2997 RMK A01 T00640043  RH  086%=      5-min Rain = 0
KCH1 190702Z 30004KT 06/04 A2997 RMK A01 T00640043  RH  086%=      5-min Rain = 0
KCH1 190703Z 30004KT 06/04 A2997 RMK A01 T00640043  RH  087%=      5-min Rain = 0
KCH1 190704Z 30004KT 06/04 A2997 RMK A01 T00640043  RH  087%=      5-min Rain = 0
KCH1 190705Z 29004KT 06/04 A2997 RMK A01 T00630043  RH  087%=      5-min Rain = 0
KCH1 190706Z 29004KT 06/04 A2997 RMK A01 T00630043  RH  087%=      5-min Rain = 0
KCH1 190707Z 30004KT 06/04 A2997 RMK A01 T00630043  RH  087%=      5-min Rain = 0
KCH1 190708Z 30004KT 06/04 A2997 RMK A01 T00630043  RH  087%=      5-min Rain = 0
KCH1 190709Z 29004KT 06/04 A2997 RMK A01 T00620043  RH  087%=      5-min Rain = 0
KCH1 190710Z 29004KT 06/04 A2997 RMK A01 T00620043  RH  087%=      5-min Rain = 0
KCH1 190711Z 30005KT 06/04 A2997 RMK A01 T00620043  RH  087%=      5-min Rain = 0
KCH1 190712Z 30005KT 06/04 A2997 RMK A01 T00630043  RH  087%=      5-min Rain = 0
KCH1 190713Z 30005KT 06/04 A2997 RMK A01 T00630043  RH  087%=      5-min Rain = 0
KCH1 190714Z 30004KT 06/04 A2997 RMK A01 T00630043  RH  087%=      5-min Rain = 0
KCH1 190715Z 30004KT 06/04 A2997 RMK A01 T00630043  RH  087%=      5-min Rain = 0
KCH1 190716Z 30004KT 06/04 A2997 RMK A01 T00630043  RH  087%=      5-min Rain = 0
KCH1 190717Z 30004KT 06/04 A2997 RMK A01 T00630043  RH  087%=      5-min Rain = 0
KCH1 190718Z 30004KT 06/04 A2997 RMK A01 T00630043  RH  087%=      5-min Rain = 0
KCH1 190719Z 31004KT 06/04 A2997 RMK A01 T00630043  RH  087%=      5-min Rain = 0
KCH1 190720Z 30003KT 06/04 A2997 RMK A01 T00630043  RH  087%=      5-min Rain = 0
KCH1 190721Z 31004KT 06/04 A2997 RMK A01 T00630042  RH  087%=      5-min Rain = 0
KCH1 190722Z 31004KT 06/04 A2997 RMK A01 T00630042  RH  087%=      5-min Rain = 0
KCH1 190723Z 31003KT 06/04 A2997 RMK A01 T00630042  RH  087%=      5-min Rain = 0
KCH1 190724Z 31003KT 06/04 A2997 RMK A01 T00620042  RH  087%=      5-min Rain = 0
KCH1 190725Z 31003KT 06/04 A2997 RMK A01 T00620041  RH  086%=      5-min Rain = 0
KCH1 190726Z 30004KT 06/04 A2997 RMK A01 T00620041  RH  086%=      5-min Rain = 0
KCH1 190727Z 30004KT 06/04 A2997 RMK A01 T00620041  RH  086%=      5-min Rain = 0
KCH1 190728Z 30005KT 06/04 A2997 RMK A01 T00630041  RH  086%=      5-min Rain = 0
KCH1 190729Z 30004KT 06/04 A2997 RMK A01 T00630041  RH  086%=      5-min Rain = 0
KCH1 190730Z 30004KT 06/04 A2997 RMK A01 T00630041  RH  086%=      5-min Rain = 0
KCH1 190731Z 31004KT 06/04 A2997 RMK A01 T00630042  RH  086%=      5-min Rain = 0
KCH1 190732Z 32003KT 06/04 A2997 RMK A01 T00630042  RH  086%=      5-min Rain = 0
KCH1 190733Z 32002KT 06/04 A2997 RMK A01 T00630041  RH  086%=      5-min Rain = 0
KCH1 190734Z 31003KT 06/04 A2997 RMK A01 T00630041  RH  086%=      5-min Rain = 0
KCH1 190735Z 32002KT 06/04 A2997 RMK A01 T00620040  RH  086%=      5-min Rain = 0
KCH1 190736Z 30002KT 06/04 A2997 RMK A01 T00610037  RH  085%=      5-min Rain = 0
KCH1 190737Z 34003KT 06/04 A2997 RMK A01 T00600037  RH  085%=      5-min Rain = 0
KCH1 190738Z 00003KT 06/03 A2997 RMK A01 T00550027  RH  082%=      5-min Rain = 0
KCH1 190739Z 31000KT 05/02 A2997 RMK A01 T00480018  RH  081%=      5-min Rain = 0
KCH1 190740Z 00001KT 05/02 A2997 RMK A01 T00450020  RH  084%=      5-min Rain = 0
KCH1 190741Z 04002KT 04/02 A2997 RMK A01 T00430021  RH  086%=      5-min Rain = 0
KCH1 190742Z 06000KT 04/02 A2997 RMK A01 T00400020  RH  087%=      5-min Rain = 0
KCH1 190743Z 07001KT 04/02 A2997 RMK A01 T00390021  RH  088%=      5-min Rain = 0
KCH1 190744Z 06001KT 04/02 A2998 RMK A01 T00380022  RH  089%=      5-min Rain = 0
KCH1 190745Z 00000KT 04/02 A2998 RMK A01 T00380022  RH  090%=      5-min Rain = 0
KCH1 190746Z 06001KT 04/02 A2997 RMK A01 T00370023  RH  090%=      5-min Rain = 0
KCH1 190747Z 06000KT 04/02 A2998 RMK A01 T00380024  RH  091%=      5-min Rain = 0
KCH1 190748Z 04001KT 04/03 A2997 RMK A01 T00380025  RH  092%=      5-min Rain = 0
KCH1 190749Z 03001KT 04/03 A2997 RMK A01 T00390027  RH  092%=      5-min Rain = 0
KCH1 190750Z 03000KT 04/03 A2998 RMK A01 T00400029  RH  093%=      5-min Rain = 0
KCH1 190751Z 02001KT 04/03 A2997 RMK A01 T00410031  RH  093%=      5-min Rain = 0
KCH1 190752Z 36001KT 04/03 A2997 RMK A01 T00410031  RH  093%=      5-min Rain = 0
KCH1 190753Z 34002KT 04/03 A2997 RMK A01 T00430032  RH  093%=      5-min Rain = 0
KCH1 190754Z 34000KT 04/03 A2997 RMK A01 T00440034  RH  093%=      5-min Rain = 0
KCH1 190755Z 01000KT 05/03 A2997 RMK A01 T00450034  RH  092%=      5-min Rain = 0
KCH1 190756Z 36001KT 05/04 A2997 RMK A01 T00470035  RH  092%=      5-min Rain = 0
KCH1 190757Z 35002KT 05/04 A2997 RMK A01 T00480035  RH  091%=      5-min Rain = 0
KCH1 190758Z 00002KT 05/03 A2997 RMK A01 T00480033  RH  090%=      5-min Rain = 0
KCH1 190759Z 36002KT 05/03 A2997 RMK A01 T00480032  RH  090%=      5-min Rain = 0
KCH1 190800Z 02002KT 05/03 A2997 RMK A01 T00480032  RH  089%=      5-min Rain = 0
KCH1 190801Z 02002KT 05/03 A2997 RMK A01 T00480032  RH  089%=      5-min Rain = 0
KCH1 190802Z 00002KT 05/03 A2997 RMK A01 T00480032  RH  089%=      5-min Rain = 0
KCH1 190803Z 00002KT 05/03 A2997 RMK A01 T00480032  RH  089%=      5-min Rain = 0
KCH1 190804Z 35003KT 05/03 A2997 RMK A01 T00480030  RH  089%=      5-min Rain = 0
KCH1 190805Z 35003KT 05/03 A2997 RMK A01 T00470030  RH  089%=      5-min Rain = 0
KCH1 190806Z 35002KT 05/03 A2997 RMK A01 T00470030  RH  089%=      5-min Rain = 0
KCH1 190807Z 01003KT 05/03 A2997 RMK A01 T00470031  RH  089%=      5-min Rain = 0
KCH1 190808Z 00003KT 05/03 A2997 RMK A01 T00470030  RH  089%=      5-min Rain = 0
KCH1 190809Z 00002KT 05/03 A2997 RMK A01 T00470031  RH  089%=      5-min Rain = 0
KCH1 190810Z 00002KT 05/03 A2997 RMK A01 T00470032  RH  090%=      5-min Rain = 0
KCH1 190811Z 35001KT 05/03 A2998 RMK A01 T00470032  RH  090%=      5-min Rain = 0
KCH1 190812Z 34002KT 05/03 A2998 RMK A01 T00470032  RH  090%=      5-min Rain = 0
KCH1 190813Z 33002KT 05/03 A2998 RMK A01 T00470032  RH  090%=      5-min Rain = 0
KCH1 190814Z 32002KT 05/03 A2998 RMK A01 T00470032  RH  090%=      5-min Rain = 0
KCH1 190815Z 34002KT 05/03 A2998 RMK A01 T00470033  RH  090%=      5-min Rain = 0
KCH1 190816Z 33002KT 05/03 A2998 RMK A01 T00480034  RH  091%=      5-min Rain = 0
KCH1 190817Z 33002KT 05/04 A2998 RMK A01 T00480035  RH  091%=      5-min Rain = 0
KCH1 190818Z 33003KT 05/04 A2998 RMK A01 T00490035  RH  091%=      5-min Rain = 0
KCH1 190819Z 32003KT 05/04 A2998 RMK A01 T00490035  RH  091%=      5-min Rain = 0
KCH1 190820Z 32003KT 05/04 A2998 RMK A01 T00500036  RH  091%=      5-min Rain = 0
KCH1 190821Z 32003KT 05/04 A2998 RMK A01 T00500036  RH  091%=      5-min Rain = 0
KCH1 190822Z 32003KT 05/04 A2998 RMK A01 T00500036  RH  091%=      5-min Rain = 0
KCH1 190823Z 31003KT 05/04 A2998 RMK A01 T00510037  RH  091%=      5-min Rain = 0
KCH1 190824Z 31003KT 05/04 A2998 RMK A01 T00510038  RH  091%=      5-min Rain = 0
KCH1 190825Z 30004KT 05/04 A2998 RMK A01 T00510037  RH  091%=      5-min Rain = 0
KCH1 190826Z 31004KT 05/04 A2998 RMK A01 T00510037  RH  091%=      5-min Rain = 0
KCH1 190827Z 30005KT 05/04 A2998 RMK A01 T00510038  RH  091%=      5-min Rain = 0
KCH1 190828Z 30005KT 05/04 A2998 RMK A01 T00510039  RH  092%=      5-min Rain = 0
KCH1 190829Z 30006KT 05/04 A2998 RMK A01 T00520040  RH  092%=      5-min Rain = 0
KCH1 190830Z 30006KT 05/04 A2998 RMK A01 T00520040  RH  092%=      5-min Rain = 0
KCH1 190831Z 30005KT 05/04 A2998 RMK A01 T00520040  RH  092%=      5-min Rain = 0
KCH1 190832Z 29004KT 05/04 A2998 RMK A01 T00520042  RH  093%=      5-min Rain = 0
KCH1 190833Z 29004KT 05/04 A2998 RMK A01 T00530043  RH  093%=      5-min Rain = 0
KCH1 190834Z 30003KT 05/04 A2998 RMK A01 T00540044  RH  093%=      5-min Rain = 0
KCH1 190835Z 30002KT 05/04 A2998 RMK A01 T00540044  RH  093%=      5-min Rain = 0
KCH1 190836Z 31002KT 05/04 A2998 RMK A01 T00540044  RH  093%=      5-min Rain = 0
KCH1 190837Z 31002KT 05/04 A2998 RMK A01 T00540044  RH  093%=      5-min Rain = 0
KCH1 190838Z 31003KT 05/04 A2998 RMK A01 T00540043  RH  093%=      5-min Rain = 0
KCH1 190839Z 31003KT 05/04 A2998 RMK A01 T00530043  RH  093%=      5-min Rain = 0
KCH1 190840Z 31003KT 05/04 A2998 RMK A01 T00530043  RH  093%=      5-min Rain = 0
KCH1 190841Z 32003KT 05/04 A2998 RMK A01 T00520042  RH  093%=      5-min Rain = 0
KCH1 190842Z 31004KT 05/04 A2998 RMK A01 T00520042  RH  093%=      5-min Rain = 0
KCH1 190843Z 31003KT 05/04 A2998 RMK A01 T00520041  RH  093%=      5-min Rain = 0
KCH1 190844Z 32003KT 05/04 A2998 RMK A01 T00510042  RH  093%=      5-min Rain = 0
KCH1 190845Z 32003KT 05/04 A2998 RMK A01 T00520042  RH  093%=      5-min Rain = 0
KCH1 190846Z 32003KT 05/04 A2998 RMK A01 T00520042  RH  094%=      5-min Rain = 0
KCH1 190847Z 31003KT 05/04 A2998 RMK A01 T00510042  RH  094%=      5-min Rain = 0
KCH1 190848Z 31003KT 05/04 A2998 RMK A01 T00510042  RH  094%=      5-min Rain = 0
KCH1 190849Z 31003KT 05/04 A2998 RMK A01 T00520043  RH  094%=      5-min Rain = 0
KCH1 190850Z 32003KT 05/04 A2998 RMK A01 T00520043  RH  094%=      5-min Rain = 0
KCH1 190851Z 32002KT 05/04 A2998 RMK A01 T00520043  RH  094%=      5-min Rain = 0
KCH1 190852Z 32003KT 05/04 A2998 RMK A01 T00520043  RH  094%=      5-min Rain = 0
KCH1 190853Z 32003KT 05/04 A2998 RMK A01 T00520042  RH  094%=      5-min Rain = 0
KCH1 190854Z 31004KT 05/04 A2998 RMK A01 T00520042  RH  094%=      5-min Rain = 0
KCH1 190855Z 31004KT 05/04 A2998 RMK A01 T00520042  RH  093%=      5-min Rain = 0
KCH1 190856Z 30004KT 05/04 A2998 RMK A01 T00520042  RH  094%=      5-min Rain = 0
KCH1 190857Z 30004KT 05/04 A2998 RMK A01 T00520042  RH  093%=      5-min Rain = 0
KCH1 190858Z 30004KT 05/04 A2998 RMK A01 T00520042  RH  093%=      5-min Rain = 0
KCH1 190859Z 31004KT 05/04 A2998 RMK A01 T00510041  RH  093%=      5-min Rain = 0
KCH1 190900Z 31004KT 05/04 A2998 RMK A01 T00520042  RH  093%=      5-min Rain = 0
KCH1 190901Z 31003KT 05/04 A2998 RMK A01 T00520042  RH  094%=      5-min Rain = 0
KCH1 190902Z 32003KT 05/04 A2998 RMK A01 T00520043  RH  094%=      5-min Rain = 0
KCH1 190903Z 32002KT 05/04 A2998 RMK A01 T00520042  RH  093%=      5-min Rain = 0
KCH1 190904Z 32002KT 05/04 A2998 RMK A01 T00510040  RH  093%=      5-min Rain = 0
KCH1 190905Z 33002KT 05/04 A2998 RMK A01 T00500040  RH  093%=      5-min Rain = 0
KCH1 190906Z 33002KT 05/04 A2998 RMK A01 T00500039  RH  093%=      5-min Rain = 0
KCH1 190907Z 33003KT 05/04 A2998 RMK A01 T00490037  RH  092%=      5-min Rain = 0
KCH1 190908Z 33003KT 05/04 A2998 RMK A01 T00480036  RH  092%=      5-min Rain = 0
KCH1 190909Z 32003KT 05/03 A2998 RMK A01 T00460034  RH  091%=      5-min Rain = 0
KCH1 190910Z 31003KT 05/03 A2998 RMK A01 T00450033  RH  091%=      5-min Rain = 0
KCH1 190911Z 31003KT 05/03 A2998 RMK A01 T00460034  RH  092%=      5-min Rain = 0
KCH1 190912Z 31003KT 05/04 A2998 RMK A01 T00460035  RH  093%=      5-min Rain = 0
KCH1 190913Z 31004KT 05/04 A2998 RMK A01 T00470037  RH  093%=      5-min Rain = 0
KCH1 190914Z 30004KT 05/04 A2998 RMK A01 T00470037  RH  093%=      5-min Rain = 0
KCH1 190915Z 31003KT 05/04 A2998 RMK A01 T00480037  RH  093%=      5-min Rain = 0
KCH1 190916Z 31003KT 05/04 A2998 RMK A01 T00490038  RH  093%=      5-min Rain = 0
KCH1 190917Z 31003KT 05/04 A2998 RMK A01 T00490037  RH  092%=      5-min Rain = 0
KCH1 190918Z 31003KT 05/04 A2998 RMK A01 T00490038  RH  092%=      5-min Rain = 0
KCH1 190919Z 31003KT 05/04 A2998 RMK A01 T00490037  RH  092%=      5-min Rain = 0
KCH1 190920Z 31003KT 05/04 A2998 RMK A01 T00490038  RH  093%=      5-min Rain = 0
KCH1 190921Z 31002KT 05/04 A2998 RMK A01 T00490037  RH  092%=      5-min Rain = 0
KCH1 190922Z 30002KT 05/04 A2998 RMK A01 T00480036  RH  092%=      5-min Rain = 0
KCH1 190923Z 30002KT 05/03 A2998 RMK A01 T00470033  RH  091%=      5-min Rain = 0
KCH1 190924Z 30002KT 05/03 A2998 RMK A01 T00450030  RH  090%=      5-min Rain = 0
KCH1 190925Z 30001KT 04/03 A2998 RMK A01 T00430028  RH  090%=      5-min Rain = 0
KCH1 190926Z 30002KT 04/03 A2998 RMK A01 T00430030  RH  091%=      5-min Rain = 0
KCH1 190927Z 29002KT 04/03 A2998 RMK A01 T00430031  RH  092%=      5-min Rain = 0
KCH1 190928Z 30002KT 04/03 A2998 RMK A01 T00440033  RH  093%=      5-min Rain = 0
KCH1 190929Z 30002KT 05/04 A2998 RMK A01 T00450035  RH  093%=      5-min Rain = 0
KCH1 190930Z 30003KT 05/04 A2997 RMK A01 T00460037  RH  094%=      5-min Rain = 0
KCH1 190931Z 30003KT 05/04 A2997 RMK A01 T00470039  RH  094%=      5-min Rain = 0
KCH1 190932Z 30003KT 05/04 A2998 RMK A01 T00480040  RH  095%=      5-min Rain = 0
KCH1 190933Z 30004KT 05/04 A2998 RMK A01 T00490041  RH  094%=      5-min Rain = 0
KCH1 190934Z 30003KT 05/04 A2998 RMK A01 T00490040  RH  094%=      5-min Rain = 0
KCH1 190935Z 31003KT 05/04 A2998 RMK A01 T00490040  RH  094%=      5-min Rain = 0
KCH1 190936Z 31003KT 05/04 A2998 RMK A01 T00490040  RH  094%=      5-min Rain = 0
KCH1 190937Z 31002KT 05/04 A2998 RMK A01 T00500040  RH  094%=      5-min Rain = 0
KCH1 190938Z 31002KT 05/04 A2998 RMK A01 T00490040  RH  093%=      5-min Rain = 0
KCH1 190939Z 31002KT 05/04 A2998 RMK A01 T00490039  RH  093%=      5-min Rain = 0
KCH1 190940Z 31002KT 05/04 A2998 RMK A01 T00490039  RH  093%=      5-min Rain = 0
KCH1 190941Z 31002KT 05/04 A2998 RMK A01 T00490039  RH  093%=      5-min Rain = 0
KCH1 190942Z 31003KT 05/04 A2998 RMK A01 T00480038  RH  093%=      5-min Rain = 0
KCH1 190943Z 30003KT 05/04 A2998 RMK A01 T00480037  RH  093%=      5-min Rain = 0
KCH1 190944Z 31002KT 05/04 A2998 RMK A01 T00470036  RH  093%=      5-min Rain = 0
KCH1 190945Z 31003KT 05/04 A2998 RMK A01 T00470037  RH  093%=      5-min Rain = 0
KCH1 190946Z 31003KT 05/04 A2998 RMK A01 T00470037  RH  093%=      5-min Rain = 0
KCH1 190947Z 31003KT 05/04 A2997 RMK A01 T00470037  RH  093%=      5-min Rain = 0
KCH1 190948Z 31003KT 05/04 A2997 RMK A01 T00470037  RH  093%=      5-min Rain = 0
KCH1 190949Z 31003KT 05/04 A2997 RMK A01 T00460036  RH  093%=      5-min Rain = 0
KCH1 190950Z 30004KT 05/03 A2997 RMK A01 T00450034  RH  093%=      5-min Rain = 0
KCH1 190951Z 30004KT 04/03 A2997 RMK A01 T00440034  RH  093%=      5-min Rain = 0
KCH1 190952Z 30003KT 04/03 A2997 RMK A01 T00440034  RH  093%=      5-min Rain = 0
KCH1 190953Z 30003KT 05/04 A2997 RMK A01 T00450036  RH  094%=      5-min Rain = 0
KCH1 190954Z 29003KT 05/04 A2997 RMK A01 T00450037  RH  094%=      5-min Rain = 0
KCH1 190955Z 29003KT 05/04 A2997 RMK A01 T00460038  RH  095%=      5-min Rain = 0
KCH1 190956Z 29003KT 05/04 A2997 RMK A01 T00460038  RH  095%=      5-min Rain = 0
KCH1 190957Z 29003KT 05/04 A2997 RMK A01 T00460039  RH  095%=      5-min Rain = 0
KCH1 190958Z 30003KT 05/04 A2997 RMK A01 T00470040  RH  095%=      5-min Rain = 0
KCH1 190959Z 30004KT 05/04 A2997 RMK A01 T00470040  RH  095%=      5-min Rain = 0
KCH1 191000Z 30004KT 05/04 A2997 RMK A01 T00480041  RH  096%=      5-min Rain = 0
KCH1 191001Z 30004KT 05/04 A2997 RMK A01 T00480042  RH  096%=      5-min Rain = 0
KCH1 191002Z 30004KT 05/04 A2997 RMK A01 T00480042  RH  095%=      5-min Rain = 0
KCH1 191003Z 30004KT 05/04 A2997 RMK A01 T00480041  RH  095%=      5-min Rain = 0
KCH1 191004Z 30004KT 05/04 A2997 RMK A01 T00470041  RH  095%=      5-min Rain = 0
KCH1 191005Z 30004KT 05/04 A2997 RMK A01 T00470040  RH  095%=      5-min Rain = 0
KCH1 191006Z 29004KT 05/04 A2997 RMK A01 T00470041  RH  096%=      5-min Rain = 0
KCH1 191007Z 29004KT 05/04 A2997 RMK A01 T00480041  RH  096%=      5-min Rain = 0
KCH1 191008Z 29004KT 05/04 A2997 RMK A01 T00480041  RH  095%=      5-min Rain = 0
KCH1 191009Z 29004KT 05/04 A2997 RMK A01 T00480040  RH  095%=      5-min Rain = 0
KCH1 191010Z 29004KT 05/04 A2997 RMK A01 T00480040  RH  095%=      5-min Rain = 0
KCH1 191011Z 29004KT 05/04 A2997 RMK A01 T00480039  RH  094%=      5-min Rain = 0
KCH1 191012Z 29004KT 05/04 A2997 RMK A01 T00480039  RH  094%=      5-min Rain = 0
KCH1 191013Z 30004KT 05/04 A2997 RMK A01 T00480038  RH  094%=      5-min Rain = 0
KCH1 191014Z 29003KT 05/04 A2997 RMK A01 T00480038  RH  093%=      5-min Rain = 0
KCH1 191015Z 30003KT 05/04 A2997 RMK A01 T00480038  RH  093%=      5-min Rain = 0
KCH1 191016Z 29003KT 05/04 A2997 RMK A01 T00480037  RH  093%=      5-min Rain = 0
KCH1 191017Z 30004KT 05/04 A2997 RMK A01 T00480037  RH  093%=      5-min Rain = 0
KCH1 191018Z 30004KT 05/04 A2997 RMK A01 T00480037  RH  093%=      5-min Rain = 0
KCH1 191019Z 30004KT 05/04 A2997 RMK A01 T00480037  RH  093%=      5-min Rain = 0
KCH1 191020Z 31004KT 05/04 A2997 RMK A01 T00480037  RH  093%=      5-min Rain = 0
KCH1 191021Z 31004KT 05/04 A2997 RMK A01 T00480037  RH  093%=      5-min Rain = 0
KCH1 191022Z 31003KT 05/04 A2996 RMK A01 T00480037  RH  093%=      5-min Rain = 0
KCH1 191023Z 31004KT 05/04 A2996 RMK A01 T00480037  RH  093%=      5-min Rain = 0
KCH1 191024Z 31003KT 05/04 A2997 RMK A01 T00480037  RH  093%=      5-min Rain = 0
KCH1 191025Z 31003KT 05/04 A2997 RMK A01 T00480038  RH  093%=      5-min Rain = 0
KCH1 191026Z 30003KT 05/04 A2997 RMK A01 T00480037  RH  093%=      5-min Rain = 0
KCH1 191027Z 30002KT 05/04 A2997 RMK A01 T00480038  RH  093%=      5-min Rain = 0
KCH1 191028Z 30003KT 05/04 A2997 RMK A01 T00480038  RH  093%=      5-min Rain = 0
KCH1 191029Z 30003KT 05/04 A2997 RMK A01 T00490038  RH  093%=      5-min Rain = 0
KCH1 191030Z 29003KT 05/04 A2997 RMK A01 T00490038  RH  093%=      5-min Rain = 0
KCH1 191031Z 31004KT 05/04 A2997 RMK A01 T00490038  RH  093%=      5-min Rain = 0
KCH1 191032Z 30003KT 05/04 A2997 RMK A01 T00480037  RH  093%=      5-min Rain = 0
KCH1 191033Z 31003KT 05/04 A2996 RMK A01 T00480038  RH  093%=      5-min Rain = 0
KCH1 191034Z 31003KT 05/04 A2996 RMK A01 T00480038  RH  093%=      5-min Rain = 0
KCH1 191035Z 31003KT 05/04 A2996 RMK A01 T00480038  RH  093%=      5-min Rain = 0
KCH1 191036Z 30003KT 05/04 A2997 RMK A01 T00480037  RH  093%=      5-min Rain = 0
KCH1 191037Z 30002KT 05/04 A2997 RMK A01 T00470036  RH  092%=      5-min Rain = 0
KCH1 191038Z 30002KT 05/04 A2997 RMK A01 T00470035  RH  092%=      5-min Rain = 0
KCH1 191039Z 30002KT 05/03 A2997 RMK A01 T00460034  RH  092%=      5-min Rain = 0
KCH1 191040Z 30002KT 05/03 A2997 RMK A01 T00450033  RH  092%=      5-min Rain = 0
KCH1 191041Z 31001KT 04/03 A2997 RMK A01 T00440032  RH  092%=      5-min Rain = 0
KCH1 191042Z 30001KT 04/03 A2997 RMK A01 T00420027  RH  090%=      5-min Rain = 0
KCH1 191043Z 30001KT 04/02 A2997 RMK A01 T00390022  RH  089%=      5-min Rain = 0
KCH1 191044Z 29001KT 04/02 A2997 RMK A01 T00350017  RH  088%=      5-min Rain = 0
KCH1 191045Z 30001KT 03/02 A2997 RMK A01 T00330015  RH  088%=      5-min Rain = 0
KCH1 191046Z 30001KT 03/01 A2997 RMK A01 T00300014  RH  089%=      5-min Rain = 0
KCH1 191047Z 30002KT 03/02 A2997 RMK A01 T00290015  RH  090%=      5-min Rain = 0
KCH1 191048Z 30002KT 03/02 A2997 RMK A01 T00290016  RH  091%=      5-min Rain = 0
KCH1 191049Z 30002KT 03/02 A2997 RMK A01 T00280016  RH  092%=      5-min Rain = 0
KCH1 191050Z 30002KT 03/02 A2997 RMK A01 T00280016  RH  092%=      5-min Rain = 0
KCH1 191051Z 30002KT 03/02 A2997 RMK A01 T00270015  RH  092%=      5-min Rain = 0
KCH1 191052Z 30002KT 03/02 A2997 RMK A01 T00270016  RH  092%=      5-min Rain = 0
KCH1 191053Z 30002KT 03/02 A2997 RMK A01 T00270016  RH  093%=      5-min Rain = 0
KCH1 191054Z 30002KT 03/02 A2997 RMK A01 T00280019  RH  094%=      5-min Rain = 0
KCH1 191055Z 30002KT 03/02 A2997 RMK A01 T00300022  RH  095%=      5-min Rain = 0
KCH1 191056Z 30002KT 03/03 A2997 RMK A01 T00310025  RH  096%=      5-min Rain = 0
KCH1 191057Z 29002KT 03/03 A2997 RMK A01 T00330027  RH  096%=      5-min Rain = 0
KCH1 191058Z 30002KT 03/03 A2997 RMK A01 T00340028  RH  096%=      5-min Rain = 0
KCH1 191059Z 29002KT 04/03 A2997 RMK A01 T00350031  RH  097%=      5-min Rain = 0
KCH1 191100Z 30002KT 04/03 A2997 RMK A01 T00370033  RH  097%=      5-min Rain = 0
KCH1 191101Z 30002KT 04/03 A2997 RMK A01 T00380034  RH  097%=      5-min Rain = 0
KCH1 191102Z 30003KT 04/03 A2997 RMK A01 T00390034  RH  097%=      5-min Rain = 0
KCH1 191103Z 31003KT 04/03 A2997 RMK A01 T00380033  RH  097%=      5-min Rain = 0
KCH1 191104Z 31002KT 04/03 A2997 RMK A01 T00390033  RH  096%=      5-min Rain = 0
KCH1 191105Z 30002KT 04/03 A2997 RMK A01 T00390033  RH  096%=      5-min Rain = 0
KCH1 191106Z 31002KT 04/03 A2997 RMK A01 T00390033  RH  096%=      5-min Rain = 0
KCH1 191107Z 31002KT 04/03 A2997 RMK A01 T00390033  RH  096%=      5-min Rain = 0
KCH1 191108Z 31002KT 04/03 A2997 RMK A01 T00400034  RH  096%=      5-min Rain = 0
KCH1 191109Z 31003KT 04/03 A2997 RMK A01 T00400034  RH  096%=      5-min Rain = 0
KCH1 191110Z 31003KT 04/03 A2997 RMK A01 T00400034  RH  096%=      5-min Rain = 0
KCH1 191111Z 31002KT 04/03 A2997 RMK A01 T00400034  RH  096%=      5-min Rain = 0
KCH1 191112Z 31003KT 04/03 A2997 RMK A01 T00400033  RH  095%=      5-min Rain = 0
KCH1 191113Z 31002KT 04/03 A2997 RMK A01 T00400033  RH  095%=      5-min Rain = 0
KCH1 191114Z 31002KT 04/03 A2997 RMK A01 T00400033  RH  095%=      5-min Rain = 0
KCH1 191115Z 31002KT 04/03 A2997 RMK A01 T00390032  RH  095%=      5-min Rain = 0
KCH1 191116Z 32002KT 04/03 A2997 RMK A01 T00400032  RH  095%=      5-min Rain = 0
KCH1 191117Z 30002KT 04/03 A2997 RMK A01 T00390032  RH  095%=      5-min Rain = 0
KCH1 191118Z 31002KT 04/03 A2997 RMK A01 T00390031  RH  094%=      5-min Rain = 0
KCH1 191119Z 30002KT 04/03 A2997 RMK A01 T00400033  RH  095%=      5-min Rain = 0
KCH1 191120Z 31003KT 04/04 A2997 RMK A01 T00410035  RH  096%=      5-min Rain = 0
KCH1 191121Z 31003KT 04/04 A2997 RMK A01 T00420035  RH  096%=      5-min Rain = 0
KCH1 191122Z 31003KT 04/04 A2997 RMK A01 T00420035  RH  095%=      5-min Rain = 0
KCH1 191123Z 31003KT 04/04 A2997 RMK A01 T00420035  RH  095%=      5-min Rain = 0
KCH1 191124Z 32003KT 04/03 A2997 RMK A01 T00420034  RH  095%=      5-min Rain = 0
KCH1 191125Z 32003KT 04/03 A2997 RMK A01 T00420033  RH  094%=      5-min Rain = 0
KCH1 191126Z 32002KT 04/03 A2997 RMK A01 T00410032  RH  094%=      5-min Rain = 0
KCH1 191127Z 32002KT 04/03 A2997 RMK A01 T00380027  RH  093%=      5-min Rain = 0
KCH1 191128Z 32002KT 04/02 A2997 RMK A01 T00350021  RH  091%=      5-min Rain = 0
KCH1 191129Z 32002KT 03/02 A2997 RMK A01 T00320018  RH  091%=      5-min Rain = 0
KCH1 191130Z 32002KT 03/01 A2997 RMK A01 T00290014  RH  090%=      5-min Rain = 0
KCH1 191131Z 31002KT 03/01 A2997 RMK A01 T00270012  RH  090%=      5-min Rain = 0
KCH1 191132Z 32002KT 03/01 A2997 RMK A01 T00250010  RH  090%=      5-min Rain = 0
KCH1 191133Z 32002KT 02/01 A2997 RMK A01 T00230008  RH  090%=      5-min Rain = 0
KCH1 191134Z 32002KT 02/01 A2997 RMK A01 T00220009  RH  092%=      5-min Rain = 0
KCH1 191135Z 32002KT 02/01 A2997 RMK A01 T00230014  RH  094%=      5-min Rain = 0
KCH1 191136Z 32002KT 03/02 A2997 RMK A01 T00270021  RH  096%=      5-min Rain = 0
KCH1 191137Z 33002KT 03/02 A2998 RMK A01 T00280023  RH  097%=      5-min Rain = 0
KCH1 191138Z 33002KT 03/02 A2998 RMK A01 T00290024  RH  097%=      5-min Rain = 0
KCH1 191139Z 33002KT 03/03 A2998 RMK A01 T00300026  RH  097%=      5-min Rain = 0
KCH1 191140Z 33002KT 03/03 A2997 RMK A01 T00320028  RH  098%=      5-min Rain = 0
KCH1 191141Z 32002KT 03/03 A2997 RMK A01 T00330029  RH  098%=      5-min Rain = 0
KCH1 191142Z 32002KT 03/03 A2997 RMK A01 T00330029  RH  098%=      5-min Rain = 0
KCH1 191143Z 32002KT 03/03 A2997 RMK A01 T00330029  RH  097%=      5-min Rain = 0
KCH1 191144Z 32002KT 03/03 A2997 RMK A01 T00340031  RH  098%=      5-min Rain = 0
KCH1 191145Z 32002KT 04/03 A2997 RMK A01 T00360033  RH  098%=      5-min Rain = 0
KCH1 191146Z 33002KT 04/03 A2997 RMK A01 T00370034  RH  098%=      5-min Rain = 0
KCH1 191147Z 32002KT 04/04 A2997 RMK A01 T00380035  RH  098%=      5-min Rain = 0
KCH1 191148Z 32003KT 04/04 A2997 RMK A01 T00380035  RH  098%=      5-min Rain = 0
KCH1 191149Z 32003KT 04/04 A2997 RMK A01 T00390035  RH  098%=      5-min Rain = 0
KCH1 191150Z 32002KT 04/04 A2997 RMK A01 T00390035  RH  097%=      5-min Rain = 0
KCH1 191151Z 33002KT 04/03 A2997 RMK A01 T00380034  RH  097%=      5-min Rain = 0
KCH1 191152Z 33002KT 04/03 A2997 RMK A01 T00360030  RH  096%=      5-min Rain = 0
KCH1 191153Z 33002KT 03/03 A2998 RMK A01 T00340027  RH  095%=      5-min Rain = 0
KCH1 191154Z 32002KT 03/02 A2998 RMK A01 T00320023  RH  094%=      5-min Rain = 0
KCH1 191155Z 32002KT 03/02 A2998 RMK A01 T00300021  RH  094%=      5-min Rain = 0
KCH1 191156Z 32002KT 03/02 A2998 RMK A01 T00300023  RH  095%=      5-min Rain = 0
KCH1 191157Z 32002KT 03/03 A2998 RMK A01 T00310025  RH  096%=      5-min Rain = 0
KCH1 191158Z 32002KT 03/03 A2998 RMK A01 T00320025  RH  096%=      5-min Rain = 0
KCH1 191159Z 31002KT 03/03 A2998 RMK A01 T00320026  RH  096%=      5-min Rain = 0
KCH1 191200Z 31002KT 03/03 A2998 RMK A01 T00330028  RH  096%=      5-min Rain = 0
KCH1 191201Z 31002KT 03/03 A2998 RMK A01 T00340030  RH  097%=      5-min Rain = 0
KCH1 191202Z 31001KT 04/03 A2998 RMK A01 T00350031  RH  097%=      5-min Rain = 0
KCH1 191203Z 31001KT 04/03 A2998 RMK A01 T00350031  RH  097%=      5-min Rain = 0
KCH1 191204Z 31001KT 04/03 A2998 RMK A01 T00350030  RH  097%=      5-min Rain = 0
KCH1 191205Z 31001KT 04/03 A2998 RMK A01 T00350031  RH  097%=      5-min Rain = 0
KCH1 191206Z 31002KT 04/03 A2998 RMK A01 T00360032  RH  097%=      5-min Rain = 0
KCH1 191207Z 31002KT 04/03 A2998 RMK A01 T00360031  RH  097%=      5-min Rain = 0
KCH1 191208Z 31002KT 04/03 A2998 RMK A01 T00360031  RH  097%=      5-min Rain = 0
KCH1 191209Z 31002KT 04/03 A2998 RMK A01 T00360031  RH  097%=      5-min Rain = 0
KCH1 191210Z 32001KT 04/03 A2998 RMK A01 T00360031  RH  097%=      5-min Rain = 0
KCH1 191211Z 32001KT 04/03 A2998 RMK A01 T00360031  RH  097%=      5-min Rain = 0
KCH1 191212Z 32001KT 03/03 A2998 RMK A01 T00340027  RH  095%=      5-min Rain = 0
KCH1 191213Z 33002KT 03/03 A2998 RMK A01 T00340028  RH  096%=      5-min Rain = 0
KCH1 191214Z 33002KT 04/03 A2998 RMK A01 T00350029  RH  096%=      5-min Rain = 0
KCH1 191215Z 33002KT 04/03 A2998 RMK A01 T00350029  RH  096%=      5-min Rain = 0
KCH1 191216Z 32002KT 04/03 A2998 RMK A01 T00350029  RH  096%=      5-min Rain = 0
KCH1 191217Z 31002KT 03/03 A2998 RMK A01 T00340028  RH  096%=      5-min Rain = 0
KCH1 191218Z 31002KT 03/03 A2998 RMK A01 T00330027  RH  095%=      5-min Rain = 0
KCH1 191219Z 31002KT 03/03 A2998 RMK A01 T00340028  RH  096%=      5-min Rain = 0
KCH1 191220Z 31002KT 04/03 A2998 RMK A01 T00350029  RH  097%=      5-min Rain = 0
KCH1 191221Z 30002KT 04/03 A2998 RMK A01 T00360031  RH  097%=      5-min Rain = 0
KCH1 191222Z 30002KT 04/03 A2998 RMK A01 T00370033  RH  097%=      5-min Rain = 0
KCH1 191223Z 30003KT 04/03 A2998 RMK A01 T00370033  RH  097%=      5-min Rain = 0
KCH1 191224Z 31003KT 04/03 A2998 RMK A01 T00380033  RH  097%=      5-min Rain = 0
KCH1 191225Z 31003KT 04/03 A2998 RMK A01 T00380034  RH  097%=      5-min Rain = 0
KCH1 191226Z 31003KT 04/03 A2998 RMK A01 T00390034  RH  097%=      5-min Rain = 0
KCH1 191227Z 31003KT 04/03 A2998 RMK A01 T00390034  RH  097%=      5-min Rain = 0
KCH1 191228Z 30003KT 04/03 A2998 RMK A01 T00390034  RH  097%=      5-min Rain = 0
KCH1 191229Z 31003KT 04/03 A2998 RMK A01 T00390034  RH  097%=      5-min Rain = 0
KCH1 191230Z 30004KT 04/04 A2998 RMK A01 T00400035  RH  097%=      5-min Rain = 0
KCH1 191231Z 30004KT 04/04 A2998 RMK A01 T00410036  RH  097%=      5-min Rain = 0
KCH1 191232Z 31004KT 04/04 A2998 RMK A01 T00410036  RH  097%=      5-min Rain = 0
KCH1 191233Z 31003KT 04/04 A2998 RMK A01 T00410036  RH  097%=      5-min Rain = 0
KCH1 191234Z 31003KT 04/04 A2998 RMK A01 T00410035  RH  096%=      5-min Rain = 0
KCH1 191235Z 31003KT 04/04 A2998 RMK A01 T00410036  RH  097%=      5-min Rain = 0
KCH1 191236Z 31003KT 04/04 A2998 RMK A01 T00410036  RH  097%=      5-min Rain = 0
KCH1 191237Z 31003KT 04/04 A2998 RMK A01 T00410036  RH  097%=      5-min Rain = 0
KCH1 191238Z 30003KT 04/04 A2998 RMK A01 T00410036  RH  097%=      5-min Rain = 0
KCH1 191239Z 30003KT 04/04 A2998 RMK A01 T00410036  RH  097%=      5-min Rain = 0
KCH1 191240Z 31003KT 04/04 A2998 RMK A01 T00410037  RH  097%=      5-min Rain = 0
KCH1 191241Z 31003KT 04/04 A2998 RMK A01 T00410037  RH  097%=      5-min Rain = 0
KCH1 191242Z 30003KT 04/04 A2998 RMK A01 T00420038  RH  097%=      5-min Rain = 0
KCH1 191243Z 30003KT 04/04 A2998 RMK A01 T00420037  RH  097%=      5-min Rain = 0
KCH1 191244Z 30002KT 04/04 A2998 RMK A01 T00420037  RH  097%=      5-min Rain = 0
KCH1 191245Z 30002KT 04/04 A2998 RMK A01 T00420037  RH  097%=      5-min Rain = 0
KCH1 191246Z 30002KT 04/03 A2998 RMK A01 T00400034  RH  096%=      5-min Rain = 0
KCH1 191247Z 31002KT 04/03 A2998 RMK A01 T00380030  RH  095%=      5-min Rain = 0
KCH1 191248Z 31002KT 03/02 A2998 RMK A01 T00330022  RH  093%=      5-min Rain = 0
KCH1 191249Z 31001KT 03/02 A2998 RMK A01 T00290015  RH  091%=      5-min Rain = 0
KCH1 191250Z 30002KT 03/01 A2998 RMK A01 T00250011  RH  090%=      5-min Rain = 0
KCH1 191251Z 31002KT 02/01 A2998 RMK A01 T00240010  RH  091%=      5-min Rain = 0
KCH1 191252Z 31002KT 02/01 A2998 RMK A01 T00230010  RH  092%=      5-min Rain = 0
KCH1 191253Z 31002KT 02/01 A2998 RMK A01 T00220010  RH  092%=      5-min Rain = 0
KCH1 191254Z 32002KT 02/01 A2998 RMK A01 T00220012  RH  093%=      5-min Rain = 0
KCH1 191255Z 33002KT 02/01 A2998 RMK A01 T00220012  RH  094%=      5-min Rain = 0
KCH1 191256Z 33002KT 02/01 A2998 RMK A01 T00210012  RH  094%=      5-min Rain = 0
KCH1 191257Z 33002KT 02/01 A2998 RMK A01 T00210013  RH  094%=      5-min Rain = 0
KCH1 191258Z 33002KT 02/02 A2998 RMK A01 T00220015  RH  095%=      5-min Rain = 0
KCH1 191259Z 33002KT 02/02 A2998 RMK A01 T00230017  RH  096%=      5-min Rain = 0
KCH1 191300Z 33002KT 02/02 A2998 RMK A01 T00230016  RH  096%=      5-min Rain = 0
KCH1 191301Z 33002KT 02/02 A2998 RMK A01 T00230017  RH  096%=      5-min Rain = 0
KCH1 191302Z 33002KT 02/02 A2998 RMK A01 T00240019  RH  096%=      5-min Rain = 0
KCH1 191303Z 34003KT 03/02 A2998 RMK A01 T00250020  RH  096%=      5-min Rain = 0
KCH1 191304Z 33003KT 03/02 A2998 RMK A01 T00250020  RH  097%=      5-min Rain = 0
KCH1 191305Z 33003KT 03/02 A2998 RMK A01 T00260021  RH  097%=      5-min Rain = 0
KCH1 191306Z 33003KT 03/02 A2998 RMK A01 T00270022  RH  097%=      5-min Rain = 0
KCH1 191307Z 32003KT 03/02 A2998 RMK A01 T00270023  RH  097%=      5-min Rain = 0
KCH1 191308Z 32003KT 03/03 A2998 RMK A01 T00290025  RH  097%=      5-min Rain = 0
KCH1 191309Z 32003KT 03/03 A2999 RMK A01 T00290026  RH  097%=      5-min Rain = 0
KCH1 191310Z 31003KT 03/03 A2999 RMK A01 T00300027  RH  098%=      5-min Rain = 0
KCH1 191311Z 31003KT 03/03 A2999 RMK A01 T00310028  RH  098%=      5-min Rain = 0
KCH1 191312Z 31003KT 03/03 A2999 RMK A01 T00310028  RH  098%=      5-min Rain = 0
KCH1 191313Z 32003KT 03/03 A2999 RMK A01 T00320028  RH  098%=      5-min Rain = 0
KCH1 191314Z 32003KT 03/03 A2999 RMK A01 T00330030  RH  098%=      5-min Rain = 0
KCH1 191315Z 32003KT 03/03 A2999 RMK A01 T00340030  RH  098%=      5-min Rain = 0
KCH1 191316Z 32003KT 03/03 A2999 RMK A01 T00340031  RH  098%=      5-min Rain = 0
KCH1 191317Z 31003KT 04/03 A2999 RMK A01 T00350031  RH  098%=      5-min Rain = 0
KCH1 191318Z 32003KT 04/03 A2999 RMK A01 T00350032  RH  098%=      5-min Rain = 0
KCH1 191319Z 32003KT 04/03 A2999 RMK A01 T00360033  RH  098%=      5-min Rain = 0
KCH1 191320Z 32003KT 04/03 A2999 RMK A01 T00370034  RH  098%=      5-min Rain = 0
KCH1 191321Z 32003KT 04/03 A2999 RMK A01 T00370034  RH  098%=      5-min Rain = 0
KCH1 191322Z 32003KT 04/03 A2999 RMK A01 T00370034  RH  098%=      5-min Rain = 0
KCH1 191323Z 31003KT 04/03 A2999 RMK A01 T00380034  RH  097%=      5-min Rain = 0
KCH1 191324Z 31003KT 04/03 A2999 RMK A01 T00380034  RH  097%=      5-min Rain = 0
KCH1 191325Z 31003KT 04/04 A2999 RMK A01 T00390035  RH  097%=      5-min Rain = 0
KCH1 191326Z 31003KT 04/04 A2999 RMK A01 T00400035  RH  097%=      5-min Rain = 0
KCH1 191327Z 30002KT 04/04 A2999 RMK A01 T00400036  RH  097%=      5-min Rain = 0
KCH1 191328Z 30003KT 04/04 A2999 RMK A01 T00410036  RH  097%=      5-min Rain = 0
KCH1 191329Z 30002KT 04/04 A2999 RMK A01 T00410036  RH  096%=      5-min Rain = 0
KCH1 191330Z 30002KT 04/04 A2999 RMK A01 T00420035  RH  096%=      5-min Rain = 0
KCH1 191331Z 31002KT 04/04 A2999 RMK A01 T00420036  RH  096%=      5-min Rain = 0
KCH1 191332Z 31002KT 04/04 A2999 RMK A01 T00420035  RH  095%=      5-min Rain = 0
KCH1 191333Z 31002KT 04/04 A2999 RMK A01 T00430035  RH  095%=      5-min Rain = 0
KCH1 191334Z 31002KT 04/04 A2999 RMK A01 T00430035  RH  094%=      5-min Rain = 0
KCH1 191335Z 31002KT 04/03 A2999 RMK A01 T00430033  RH  094%=      5-min Rain = 0
KCH1 191336Z 30002KT 04/03 A2999 RMK A01 T00420031  RH  093%=      5-min Rain = 0
KCH1 191337Z 30002KT 04/03 A2999 RMK A01 T00410030  RH  092%=      5-min Rain = 0
KCH1 191338Z 30002KT 04/03 A2999 RMK A01 T00410030  RH  092%=      5-min Rain = 0
KCH1 191339Z 30003KT 04/03 A2999 RMK A01 T00410030  RH  092%=      5-min Rain = 0
KCH1 191340Z 30003KT 04/03 A2999 RMK A01 T00410030  RH  092%=      5-min Rain = 0
KCH1 191341Z 30004KT 04/03 A2999 RMK A01 T00420030  RH  092%=      5-min Rain = 0
KCH1 191342Z 30004KT 04/03 A2999 RMK A01 T00430032  RH  093%=      5-min Rain = 0
KCH1 191343Z 30004KT 04/03 A2999 RMK A01 T00440033  RH  093%=      5-min Rain = 0
KCH1 191344Z 30004KT 04/03 A2999 RMK A01 T00440034  RH  093%=      5-min Rain = 0
KCH1 191345Z 30003KT 05/04 A2999 RMK A01 T00450035  RH  093%=      5-min Rain = 0
KCH1 191346Z 30003KT 05/04 A2999 RMK A01 T00460036  RH  093%=      5-min Rain = 0
KCH1 191347Z 31002KT 05/04 A2999 RMK A01 T00460036  RH  093%=      5-min Rain = 0
KCH1 191348Z 30003KT 05/04 A2999 RMK A01 T00460036  RH  093%=      5-min Rain = 0
KCH1 191349Z 31002KT 05/04 A30 RMK A01 T00460036  RH  093%=      5-min Rain = 0
KCH1 191350Z 31002KT 05/04 A30 RMK A01 T00460036  RH  093%=      5-min Rain = 0
KCH1 191351Z 32002KT 05/04 A30 RMK A01 T00460035  RH  092%=      5-min Rain = 0
KCH1 191352Z 31002KT 05/03 A30 RMK A01 T00460034  RH  092%=      5-min Rain = 0
KCH1 191353Z 31002KT 05/03 A30 RMK A01 T00460033  RH  091%=      5-min Rain = 0
KCH1 191354Z 31003KT 05/03 A30 RMK A01 T00460032  RH  091%=      5-min Rain = 0
KCH1 191355Z 31002KT 05/03 A30 RMK A01 T00460031  RH  090%=      5-min Rain = 0
KCH1 191356Z 32002KT 05/03 A30 RMK A01 T00460031  RH  090%=      5-min Rain = 0
KCH1 191357Z 31002KT 05/03 A30 RMK A01 T00470033  RH  091%=      5-min Rain = 0
KCH1 191358Z 32002KT 05/04 A30 RMK A01 T00480035  RH  091%=      5-min Rain = 0
KCH1 191359Z 32002KT 05/04 A30 RMK A01 T00490036  RH  091%=      5-min Rain = 0
KCH1 191400Z 32001KT 05/04 A30 RMK A01 T00500035  RH  090%=      5-min Rain = 0
KCH1 191401Z 32001KT 05/04 A30 RMK A01 T00510036  RH  090%=      5-min Rain = 0
KCH1 191402Z 31001KT 05/03 A30 RMK A01 T00510034  RH  089%=      5-min Rain = 0
KCH1 191403Z 31001KT 05/04 A30 RMK A01 T00520035  RH  089%=      5-min Rain = 0
KCH1 191404Z 31001KT 05/04 A30 RMK A01 T00530035  RH  088%=      5-min Rain = 0
KCH1 191405Z 31001KT 05/04 A30 RMK A01 T00530035  RH  088%=      5-min Rain = 0
KCH1 191406Z 31001KT 05/03 A30 RMK A01 T00530034  RH  088%=      5-min Rain = 0
KCH1 191407Z 30001KT 05/03 A30 RMK A01 T00510032  RH  087%=      5-min Rain = 0
KCH1 191408Z 31001KT 05/03 A30 RMK A01 T00490031  RH  088%=      5-min Rain = 0
KCH1 191409Z 31001KT 05/03 A30 RMK A01 T00480030  RH  088%=      5-min Rain = 0
KCH1 191410Z 32001KT 05/03 A30 RMK A01 T00460030  RH  089%=      5-min Rain = 0
KCH1 191411Z 32001KT 05/03 A30 RMK A01 T00460030  RH  090%=      5-min Rain = 0
KCH1 191412Z 32001KT 05/03 A30 RMK A01 T00460031  RH  090%=      5-min Rain = 0
KCH1 191413Z 32001KT 05/03 A30 RMK A01 T00470031  RH  090%=      5-min Rain = 0
KCH1 191414Z 32001KT 05/03 A30 RMK A01 T00480032  RH  090%=      5-min Rain = 0
KCH1 191415Z 31000KT 05/03 A30 RMK A01 T00490034  RH  090%=      5-min Rain = 0
KCH1 191416Z 32000KT 05/04 A30 RMK A01 T00510036  RH  090%=      5-min Rain = 0
KCH1 191417Z 34000KT 05/04 A30 RMK A01 T00520037  RH  090%=      5-min Rain = 0
KCH1 191418Z 34001KT 05/04 A30 RMK A01 T00520036  RH  090%=      5-min Rain = 0
KCH1 191419Z 34001KT 05/04 A30 RMK A01 T00520036  RH  089%=      5-min Rain = 0
KCH1 191420Z 35001KT 05/04 A30 RMK A01 T00530037  RH  089%=      5-min Rain = 0
KCH1 191421Z 35001KT 06/04 A30 RMK A01 T00550040  RH  090%=      5-min Rain = 0
KCH1 191422Z 34001KT 06/04 A30 RMK A01 T00570042  RH  090%=      5-min Rain = 0
KCH1 191423Z 32001KT 06/05 A30 RMK A01 T00590045  RH  090%=      5-min Rain = 0
KCH1 191424Z 32001KT 06/05 A30 RMK A01 T00620047  RH  090%=      5-min Rain = 0
KCH1 191425Z 32001KT 06/05 A30 RMK A01 T00640048  RH  090%=      5-min Rain = 0
KCH1 191426Z 31000KT 07/05 A30 RMK A01 T00660050  RH  089%=      5-min Rain = 0
KCH1 191427Z 00000KT 07/05 A30 RMK A01 T00680051  RH  089%=      5-min Rain = 0
KCH1 191428Z 00000KT 07/05 A30 RMK A01 T00700050  RH  087%=      5-min Rain = 0
KCH1 191429Z 00000KT 07/05 A30 RMK A01 T00720051  RH  087%=      5-min Rain = 0
KCH1 191430Z 00000KT 07/05 A30 RMK A01 T00740053  RH  086%=      5-min Rain = 0
KCH1 191431Z 00000KT 08/06 A30 RMK A01 T00760055  RH  086%=      5-min Rain = 0
KCH1 191432Z 00000KT 08/06 A30 RMK A01 T00790057  RH  086%=      5-min Rain = 0
KCH1 191433Z 00000KT 08/06 A30 RMK A01 T00810058  RH  086%=      5-min Rain = 0
KCH1 191434Z 00000KT 08/06 A30 RMK A01 T00820059  RH  085%=      5-min Rain = 0
KCH1 191435Z 00000KT 08/06 A30 RMK A01 T00840057  RH  083%=      5-min Rain = 0
KCH1 191436Z 00000KT 09/06 A30 RMK A01 T00850057  RH  082%=      5-min Rain = 0
KCH1 191437Z 00000KT 09/06 A30 RMK A01 T00860056  RH  082%=      5-min Rain = 0
KCH1 191438Z 00000KT 09/06 A30 RMK A01 T00870057  RH  081%=      5-min Rain = 0
KCH1 191439Z 00000KT 09/06 A30 RMK A01 T00870057  RH  081%=      5-min Rain = 0
KCH1 191440Z 00000KT 09/06 A30 RMK A01 T00880057  RH  081%=      5-min Rain = 0
KCH1 191441Z 00000KT 09/06 A30 RMK A01 T00900060  RH  081%=      5-min Rain = 0
KCH1 191442Z 00000KT 09/06 A30 RMK A01 T00910061  RH  082%=      5-min Rain = 0
KCH1 191443Z 00000KT 09/06 A30 RMK A01 T00910062  RH  082%=      5-min Rain = 0
KCH1 191444Z 00000KT 09/06 A30 RMK A01 T00930062  RH  081%=      5-min Rain = 0
KCH1 191445Z 02000KT 09/06 A30 RMK A01 T00940061  RH  080%=      5-min Rain = 0
KCH1 191446Z 02000KT 09/06 A30 RMK A01 T00940061  RH  080%=      5-min Rain = 0
KCH1 191447Z 36000KT 10/06 A30 RMK A01 T00960064  RH  080%=      5-min Rain = 0
KCH1 191448Z 00000KT 10/07 A30 RMK A01 T00970065  RH  080%=      5-min Rain = 0
KCH1 191449Z 00000KT 10/07 A30 RMK A01 T00980065  RH  080%=      5-min Rain = 0
KCH1 191450Z 00000KT 10/07 A30 RMK A01 T01000066  RH  079%=      5-min Rain = 0
KCH1 191451Z 00000KT 10/07 A30 RMK A01 T01020066  RH  078%=      5-min Rain = 0
KCH1 191452Z 11000KT 10/07 A30 RMK A01 T01040067  RH  078%=      5-min Rain = 0
KCH1 191453Z 14000KT 11/07 A30 RMK A01 T01060070  RH  078%=      5-min Rain = 0
KCH1 191454Z 00000KT 11/07 A30 RMK A01 T01090070  RH  077%=      5-min Rain = 0
KCH1 191455Z 00000KT 11/07 A30 RMK A01 T01100070  RH  076%=      5-min Rain = 0
KCH1 191456Z 00000KT 11/07 A30 RMK A01 T01120071  RH  076%=      5-min Rain = 0
KCH1 191457Z 00000KT 11/07 A30 RMK A01 T01140070  RH  075%=      5-min Rain = 0
KCH1 191458Z 00000KT 12/07 A30 RMK A01 T01160069  RH  073%=      5-min Rain = 0
KCH1 191459Z 00000KT 12/07 A30 RMK A01 T01180070  RH  072%=      5-min Rain = 0
KCH1 191500Z 00000KT 12/07 A30 RMK A01 T01190069  RH  072%=      5-min Rain = 0
KCH1 191501Z 00000KT 12/07 A30 RMK A01 T01210070  RH  071%=      5-min Rain = 0
KCH1 191502Z 00000KT 12/07 A30 RMK A01 T01220069  RH  070%=      5-min Rain = 0
KCH1 191503Z 00000KT 12/07 A30 RMK A01 T01230068  RH  069%=      5-min Rain = 0
KCH1 191504Z 10000KT 13/07 A30 RMK A01 T01250071  RH  069%=      5-min Rain = 0
KCH1 191505Z 13000KT 13/07 A30 RMK A01 T01280070  RH  068%=      5-min Rain = 0
KCH1 191506Z 09000KT 13/07 A30 RMK A01 T01290070  RH  067%=      5-min Rain = 0
KCH1 191507Z 11001KT 13/07 A30 RMK A01 T01300069  RH  066%=      5-min Rain = 0
KCH1 191508Z 00000KT 13/07 A30 RMK A01 T01310068  RH  066%=      5-min Rain = 0
KCH1 191509Z 00000KT 13/06 A30 RMK A01 T01310064  RH  063%=      5-min Rain = 0
KCH1 191510Z 00000KT 13/06 A30 RMK A01 T01330062  RH  062%=      5-min Rain = 0
KCH1 191511Z 00000KT 14/06 A30 RMK A01 T01350061  RH  061%=      5-min Rain = 0
KCH1 191512Z 03000KT 14/06 A30 RMK A01 T01370063  RH  061%=      5-min Rain = 0
KCH1 191513Z 00000KT 14/07 A30 RMK A01 T01390065  RH  061%=      5-min Rain = 0
KCH1 191514Z 00000KT 14/07 A30 RMK A01 T01390065  RH  061%=      5-min Rain = 0
KCH1 191515Z 00000KT 14/07 A30 RMK A01 T01410066  RH  061%=      5-min Rain = 0
KCH1 191516Z 32000KT 14/06 A30 RMK A01 T01430063  RH  059%=      5-min Rain = 0
KCH1 191517Z 00000KT 14/06 A30 RMK A01 T01440058  RH  056%=      5-min Rain = 0
KCH1 191518Z 35000KT 15/05 A30 RMK A01 T01450054  RH  054%=      5-min Rain = 0
KCH1 191519Z 00000KT 15/06 A30 RMK A01 T01480058  RH  055%=      5-min Rain = 0
KCH1 191520Z 00000KT 15/06 A30 RMK A01 T01500058  RH  054%=      5-min Rain = 0
KCH1 191521Z 00000KT 15/06 A30 RMK A01 T01510058  RH  054%=      5-min Rain = 0
KCH1 191522Z 00000KT 15/06 A30 RMK A01 T01510059  RH  054%=      5-min Rain = 0
KCH1 191523Z 00000KT 15/06 A30 RMK A01 T01530059  RH  054%=      5-min Rain = 0
KCH1 191524Z 00000KT 16/06 A30 RMK A01 T01570061  RH  053%=      5-min Rain = 0
KCH1 191525Z 00000KT 16/06 A30 RMK A01 T01600063  RH  052%=      5-min Rain = 0
KCH1 191526Z 00000KT 16/06 A30 RMK A01 T01620062  RH  051%=      5-min Rain = 0
KCH1 191527Z 00000KT 16/06 A30 RMK A01 T01620062  RH  051%=      5-min Rain = 0
KCH1 191528Z 11000KT 16/06 A30 RMK A01 T01610061  RH  051%=      5-min Rain = 0
KCH1 191529Z 10001KT 16/06 A30 RMK A01 T01610060  RH  051%=      5-min Rain = 0
KCH1 191530Z 09001KT 16/06 A30 RMK A01 T01600060  RH  051%=      5-min Rain = 0
KCH1 191531Z 12001KT 16/06 A30 RMK A01 T01610061  RH  051%=      5-min Rain = 0
KCH1 191532Z 15001KT 16/06 A30 RMK A01 T01630063  RH  051%=      5-min Rain = 0
KCH1 191533Z 14001KT 17/06 A30 RMK A01 T01650062  RH  051%=      5-min Rain = 0
KCH1 191534Z 13000KT 17/06 A30 RMK A01 T01660062  RH  050%=      5-min Rain = 0
KCH1 191535Z 12001KT 17/06 A30 RMK A01 T01670063  RH  050%=      5-min Rain = 0
KCH1 191536Z 15002KT 17/06 A30 RMK A01 T01680064  RH  050%=      5-min Rain = 0
KCH1 191537Z 14001KT 17/07 A30 RMK A01 T01680065  RH  050%=      5-min Rain = 0
KCH1 191538Z 18001KT 17/07 A30 RMK A01 T01680065  RH  050%=      5-min Rain = 0
KCH1 191539Z 17001KT 17/07 A30 RMK A01 T01680065  RH  051%=      5-min Rain = 0
KCH1 191540Z 18002KT 17/07 A30 RMK A01 T01680066  RH  051%=      5-min Rain = 0
KCH1 191541Z 17002KT 17/07 A30 RMK A01 T01680066  RH  051%=      5-min Rain = 0
KCH1 191542Z 19002KT 17/07 A30 RMK A01 T01670066  RH  051%=      5-min Rain = 0
KCH1 191543Z 19002KT 17/07 A30 RMK A01 T01660067  RH  052%=      5-min Rain = 0
KCH1 191544Z 17002KT 17/07 A30 RMK A01 T01660065  RH  051%=      5-min Rain = 0
KCH1 191545Z 21002KT 17/07 A30 RMK A01 T01650066  RH  052%=      5-min Rain = 0
KCH1 191546Z 22002KT 17/07 A30 RMK A01 T01650067  RH  052%=      5-min Rain = 0
KCH1 191547Z 22002KT 17/07 A30 RMK A01 T01650067  RH  052%=      5-min Rain = 0
KCH1 191548Z 23001KT 16/07 A30 RMK A01 T01640068  RH  053%=      5-min Rain = 0
KCH1 191549Z 22001KT 16/07 A30 RMK A01 T01640068  RH  053%=      5-min Rain = 0
KCH1 191550Z 19001KT 16/07 A30 RMK A01 T01640068  RH  053%=      5-min Rain = 0
KCH1 191551Z 20002KT 17/07 A30 RMK A01 T01650068  RH  053%=      5-min Rain = 0
KCH1 191552Z 21001KT 16/07 A30 RMK A01 T01640069  RH  053%=      5-min Rain = 0
KCH1 191553Z 22001KT 16/07 A30 RMK A01 T01640069  RH  053%=      5-min Rain = 0
KCH1 191554Z 21001KT 17/07 A30 RMK A01 T01650070  RH  053%=      5-min Rain = 0
KCH1 191555Z 20001KT 17/07 A30 RMK A01 T01650071  RH  054%=      5-min Rain = 0
KCH1 191556Z 18002KT 17/07 A30 RMK A01 T01670072  RH  054%=      5-min Rain = 0
KCH1 191557Z 20002KT 17/07 A30 RMK A01 T01690073  RH  053%=      5-min Rain = 0
KCH1 191558Z 19003KT 17/07 A30 RMK A01 T01700072  RH  052%=      5-min Rain = 0
KCH1 191559Z 19003KT 17/07 A30 RMK A01 T01710073  RH  052%=      5-min Rain = 0
KCH1 191600Z 23002KT 17/08 A30 RMK A01 T01730076  RH  053%=      5-min Rain = 0
KCH1 191601Z 24002KT 17/08 A30 RMK A01 T01740075  RH  052%=      5-min Rain = 0
KCH1 191602Z 23003KT 18/08 A30 RMK A01 T01750075  RH  052%=      5-min Rain = 0
KCH1 191603Z 19003KT 18/08 A30 RMK A01 T01750076  RH  052%=      5-min Rain = 0
KCH1 191604Z 21004KT 18/08 A30 RMK A01 T01770076  RH  051%=      5-min Rain = 0
KCH1 191605Z 21004KT 18/08 A30 RMK A01 T01780077  RH  052%=      5-min Rain = 0
KCH1 191606Z 21005KT 18/08 A30 RMK A01 T01800077  RH  051%=      5-min Rain = 0
KCH1 191607Z 21008KT 18/08 A30 RMK A01 T01820078  RH  051%=      5-min Rain = 0
KCH1 191608Z 21007KT 18/08 A30 RMK A01 T01830077  RH  050%=      5-min Rain = 0
KCH1 191609Z 20006KT 18/08 A30 RMK A01 T01820077  RH  050%=      5-min Rain = 0
KCH1 191610Z 20005KT 18/08 A30 RMK A01 T01820076  RH  050%=      5-min Rain = 0
KCH1 191611Z 18006KT 18/08 A30 RMK A01 T01830077  RH  050%=      5-min Rain = 0
KCH1 191612Z 20005KT 19/08 A30 RMK A01 T01870079  RH  050%=      5-min Rain = 0
KCH1 191613Z 19010KT 19/08 A30 RMK A01 T01890078  RH  049%=      5-min Rain = 0
KCH1 191614Z 19008KT 19/08 A30 RMK A01 T01880076  RH  048%=      5-min Rain = 0
KCH1 191615Z 20009KT 19/08 A30 RMK A01 T01870077  RH  049%=      5-min Rain = 0
KCH1 191616Z 21007KT 19/08 A30 RMK A01 T01870076  RH  048%=      5-min Rain = 0
KCH1 191617Z 20009KT 19/08 A30 RMK A01 T01870077  RH  049%=      5-min Rain = 0
KCH1 191618Z 19007KT 19/08 A30 RMK A01 T01870077  RH  049%=      5-min Rain = 0
KCH1 191619Z 20006KT 19/08 A30 RMK A01 T01870077  RH  049%=      5-min Rain = 0
KCH1 191620Z 22005G10KT 19/08 A30 RMK A01 T01890079  RH  049%=      5-min Rain = 0
KCH1 191621Z 20009KT 19/08 A30 RMK A01 T01890078  RH  048%=      5-min Rain = 0
KCH1 191622Z 21007KT 19/08 A30 RMK A01 T01890077  RH  048%=      5-min Rain = 0
KCH1 191623Z 20006KT 19/08 A30 RMK A01 T01860076  RH  049%=      5-min Rain = 0
KCH1 191624Z 22007KT 19/08 A30 RMK A01 T01850077  RH  049%=      5-min Rain = 0
KCH1 191625Z 22007KT 18/08 A30 RMK A01 T01840076  RH  049%=      5-min Rain = 0
KCH1 191626Z 20005KT 18/08 A30 RMK A01 T01820076  RH  050%=      5-min Rain = 0
KCH1 191627Z 20006KT 18/08 A30 RMK A01 T01810076  RH  050%=      5-min Rain = 0
KCH1 191628Z 22006KT 18/08 A30 RMK A01 T01810077  RH  051%=      5-min Rain = 0
KCH1 191629Z 22006KT 18/08 A30 RMK A01 T01800076  RH  051%=      5-min Rain = 0
KCH1 191630Z 21004KT 18/08 A30 RMK A01 T01810077  RH  051%=      5-min Rain = 0
KCH1 191631Z 18006KT 18/08 A30 RMK A01 T01820079  RH  051%=      5-min Rain = 0
KCH1 191632Z 20006KT 18/08 A30 RMK A01 T01840078  RH  050%=      5-min Rain = 0
KCH1 191633Z 21006KT 19/08 A30 RMK A01 T01860079  RH  050%=      5-min Rain = 0
KCH1 191634Z 21005KT 19/08 A30 RMK A01 T01870078  RH  049%=      5-min Rain = 0
KCH1 191635Z 21006KT 19/08 A30 RMK A01 T01880079  RH  049%=      5-min Rain = 0
KCH1 191636Z 19006KT 19/08 A30 RMK A01 T01880079  RH  049%=      5-min Rain = 0
KCH1 191637Z 19005KT 19/08 A30 RMK A01 T01880080  RH  049%=      5-min Rain = 0
KCH1 191638Z 18006KT 19/08 A30 RMK A01 T01900080  RH  049%=      5-min Rain = 0
KCH1 191639Z 20005KT 19/08 A30 RMK A01 T01900079  RH  048%=      5-min Rain = 0
KCH1 191640Z 19006KT 19/08 A30 RMK A01 T01900079  RH  049%=      5-min Rain = 0
KCH1 191641Z 18007KT 19/08 A30 RMK A01 T01880078  RH  049%=      5-min Rain = 0
KCH1 191642Z 19008KT 19/08 A30 RMK A01 T01870078  RH  049%=      5-min Rain = 0
KCH1 191643Z 19005KT 19/08 A30 RMK A01 T01860078  RH  049%=      5-min Rain = 0
KCH1 191644Z 19007KT 19/08 A30 RMK A01 T01860078  RH  049%=      5-min Rain = 0
KCH1 191645Z 19007KT 19/08 A30 RMK A01 T01870079  RH  049%=      5-min Rain = 0
KCH1 191646Z 19008KT 19/08 A30 RMK A01 T01890079  RH  049%=      5-min Rain = 0
KCH1 191647Z 19007KT 19/08 A30 RMK A01 T01920081  RH  049%=      5-min Rain = 0
KCH1 191648Z 19007KT 19/08 A30 RMK A01 T01940081  RH  048%=      5-min Rain = 0
KCH1 191649Z 19007KT 20/08 A30 RMK A01 T01950080  RH  047%=      5-min Rain = 0
KCH1 191650Z 18009KT 20/08 A30 RMK A01 T01950080  RH  047%=      5-min Rain = 0
KCH1 191651Z 19007KT 19/08 A30 RMK A01 T01940080  RH  048%=      5-min Rain = 0
KCH1 191652Z 20006KT 19/08 A30 RMK A01 T01940080  RH  048%=      5-min Rain = 0
KCH1 191653Z 20005KT 20/08 A30 RMK A01 T01960081  RH  047%=      5-min Rain = 0
KCH1 191654Z 20007KT 20/08 A30 RMK A01 T01970081  RH  047%=      5-min Rain = 0
KCH1 191655Z 20006KT 20/08 A30 RMK A01 T01980081  RH  047%=      5-min Rain = 0
KCH1 191656Z 19006KT 20/08 A2999 RMK A01 T01990081  RH  047%=      5-min Rain = 0
KCH1 191657Z 19007KT 20/08 A2999 RMK A01 T02000082  RH  046%=      5-min Rain = 0
KCH1 191658Z 19005KT 20/08 A2999 RMK A01 T02010081  RH  046%=      5-min Rain = 0
KCH1 191659Z 18005KT 20/08 A2999 RMK A01 T02010081  RH  046%=      5-min Rain = 0
KCH1 191700Z 18007KT 20/08 A2999 RMK A01 T02020081  RH  046%=      5-min Rain = 0
KCH1 191701Z 19006KT 20/08 A2999 RMK A01 T02030081  RH  045%=      5-min Rain = 0
KCH1 191702Z 18007KT 21/08 A2999 RMK A01 T02060083  RH  045%=      5-min Rain = 0
KCH1 191703Z 19008KT 21/08 A2999 RMK A01 T02080081  RH  044%=      5-min Rain = 0
KCH1 191704Z 19008KT 21/08 A2999 RMK A01 T02080080  RH  044%=      5-min Rain = 0
KCH1 191705Z 20007KT 21/08 A2999 RMK A01 T02050080  RH  044%=      5-min Rain = 0
KCH1 191706Z 21007KT 21/08 A2999 RMK A01 T02050081  RH  045%=      5-min Rain = 0
KCH1 191707Z 22005KT 21/08 A2999 RMK A01 T02050080  RH  045%=      5-min Rain = 0
KCH1 191708Z 21008KT 21/08 A2999 RMK A01 T02050082  RH  045%=      5-min Rain = 0
KCH1 191709Z 22007KT 21/08 A2999 RMK A01 T02060081  RH  045%=      5-min Rain = 0
KCH1 191710Z 21007G12KT 21/08 A2999 RMK A01 T02060081  RH  045%=      5-min Rain = 0
KCH1 191711Z 20009KT 21/08 A2999 RMK A01 T02070081  RH  044%=      5-min Rain = 0
KCH1 191712Z 20008KT 21/08 A2998 RMK A01 T02080081  RH  044%=      5-min Rain = 0
KCH1 191713Z 20008KT 21/08 A2998 RMK A01 T02090081  RH  044%=      5-min Rain = 0
KCH1 191714Z 19006KT 21/08 A2998 RMK A01 T02080082  RH  044%=      5-min Rain = 0
KCH1 191715Z 21004KT 21/08 A2998 RMK A01 T02110083  RH  044%=      5-min Rain = 0
KCH1 191716Z 22007KT 21/08 A2998 RMK A01 T02140083  RH  043%=      5-min Rain = 0
KCH1 191717Z 21008KT 22/08 A2998 RMK A01 T02150081  RH  042%=      5-min Rain = 0
KCH1 191718Z 21007KT 21/08 A2998 RMK A01 T02130081  RH  043%=      5-min Rain = 0
KCH1 191719Z 18007KT 21/08 A2998 RMK A01 T02120081  RH  043%=      5-min Rain = 0
KCH1 191720Z 18008KT 21/08 A2998 RMK A01 T02130082  RH  043%=      5-min Rain = 0
KCH1 191721Z 19009KT 21/08 A2998 RMK A01 T02140081  RH  042%=      5-min Rain = 0
KCH1 191722Z 20011KT 22/08 A2998 RMK A01 T02150081  RH  042%=      5-min Rain = 0
KCH1 191723Z 21009KT 22/08 A2998 RMK A01 T02150080  RH  042%=      5-min Rain = 0
KCH1 191724Z 21006KT 21/08 A2998 RMK A01 T02140081  RH  042%=      5-min Rain = 0
KCH1 191725Z 20006KT 21/08 A2998 RMK A01 T02140081  RH  042%=      5-min Rain = 0
KCH1 191726Z 21007KT 22/08 A2998 RMK A01 T02150081  RH  042%=      5-min Rain = 0
KCH1 191727Z 20007KT 22/08 A2998 RMK A01 T02160081  RH  042%=      5-min Rain = 0
KCH1 191728Z 22008KT 22/08 A2998 RMK A01 T02170082  RH  042%=      5-min Rain = 0
KCH1 191729Z 20007KT 22/08 A2998 RMK A01 T02170081  RH  042%=      5-min Rain = 0
KCH1 191730Z 21006KT 22/08 A2998 RMK A01 T02180081  RH  041%=      5-min Rain = 0
KCH1 191731Z 21007KT 22/08 A2997 RMK A01 T02180081  RH  041%=      5-min Rain = 0
KCH1 191732Z 19008KT 22/08 A2997 RMK A01 T02170081  RH  042%=      5-min Rain = 0
KCH1 191733Z 20009KT 22/08 A2997 RMK A01 T02180081  RH  041%=      5-min Rain = 0
KCH1 191734Z 19009KT 22/08 A2997 RMK A01 T02180079  RH  041%=      5-min Rain = 0
KCH1 191735Z 20008KT 22/08 A2997 RMK A01 T02170079  RH  041%=      5-min Rain = 0
KCH1 191736Z 21007KT 22/08 A2997 RMK A01 T02160080  RH  042%=      5-min Rain = 0
KCH1 191737Z 20006KT 22/08 A2997 RMK A01 T02160080  RH  042%=      5-min Rain = 0
KCH1 191738Z 21008KT 22/08 A2997 RMK A01 T02170080  RH  041%=      5-min Rain = 0
KCH1 191739Z 20009KT 22/08 A2997 RMK A01 T02180079  RH  041%=      5-min Rain = 0
KCH1 191740Z 20006KT 22/08 A2997 RMK A01 T02180080  RH  041%=      5-min Rain = 0
KCH1 191741Z 18007KT 22/08 A2997 RMK A01 T02190080  RH  041%=      5-min Rain = 0
KCH1 191742Z 19007KT 22/08 A2997 RMK A01 T02200080  RH  041%=      5-min Rain = 0
KCH1 191743Z 19009KT 22/08 A2997 RMK A01 T02200079  RH  040%=      5-min Rain = 0
KCH1 191744Z 21005KT 22/08 A2997 RMK A01 T02200081  RH  041%=      5-min Rain = 0
KCH1 191745Z 19009KT 22/08 A2997 RMK A01 T02220081  RH  040%=      5-min Rain = 0
KCH1 191746Z 19009KT 22/08 A2997 RMK A01 T02230081  RH  040%=      5-min Rain = 0
KCH1 191747Z 18007KT 22/08 A2997 RMK A01 T02220080  RH  040%=      5-min Rain = 0
KCH1 191748Z 20007KT 22/08 A2997 RMK A01 T02210080  RH  040%=      5-min Rain = 0
KCH1 191749Z 21007KT 22/08 A2997 RMK A01 T02210080  RH  040%=      5-min Rain = 0
KCH1 191750Z 20008KT 22/08 A2996 RMK A01 T02200079  RH  040%=      5-min Rain = 0
KCH1 191751Z 21007KT 22/08 A2996 RMK A01 T02210080  RH  040%=      5-min Rain = 0
KCH1 191752Z 21007KT 22/08 A2996 RMK A01 T02220079  RH  040%=      5-min Rain = 0
KCH1 191753Z 19005KT 22/08 A2996 RMK A01 T02220080  RH  040%=      5-min Rain = 0
KCH1 191754Z 22005KT 22/08 A2996 RMK A01 T02220082  RH  041%=      5-min Rain = 0
KCH1 191755Z 20005KT 22/08 A2996 RMK A01 T02240082  RH  040%=      5-min Rain = 0
KCH1 191756Z 18006KT 23/08 A2996 RMK A01 T02250081  RH  040%=      5-min Rain = 0
KCH1 191757Z 17005KT 23/08 A2996 RMK A01 T02250082  RH  040%=      5-min Rain = 0
KCH1 191758Z 15006KT 23/08 A2996 RMK A01 T02270082  RH  040%=      5-min Rain = 0
KCH1 191759Z 15006KT 23/08 A2996 RMK A01 T02280082  RH  039%=      5-min Rain = 0
KCH1 191800Z 17006KT 23/08 A2996 RMK A01 T02290082  RH  039%=      5-min Rain = 0
KCH1 191801Z 19006KT 23/08 A2996 RMK A01 T02290082  RH  039%=      5-min Rain = 0
KCH1 191802Z 17005KT 23/08 A2996 RMK A01 T02290083  RH  039%=      5-min Rain = 0
KCH1 191803Z 16007KT 23/08 A2996 RMK A01 T02320082  RH  038%=      5-min Rain = 0
KCH1 191804Z 18008KT 23/08 A2996 RMK A01 T02320081  RH  038%=      5-min Rain = 0
KCH1 191805Z 19007KT 23/08 A2996 RMK A01 T02300080  RH  038%=      5-min Rain = 0
KCH1 191806Z 20006KT 23/08 A2996 RMK A01 T02280079  RH  039%=      5-min Rain = 0
KCH1 191807Z 18007KT 23/08 A2996 RMK A01 T02250080  RH  039%=      5-min Rain = 0
KCH1 191808Z 16009KT 23/08 A2996 RMK A01 T02250080  RH  039%=      5-min Rain = 0
KCH1 191809Z 19005KT 23/08 A2996 RMK A01 T02260080  RH  039%=      5-min Rain = 0
KCH1 191810Z 17006KT 23/08 A2996 RMK A01 T02270082  RH  039%=      5-min Rain = 0
KCH1 191811Z 17010KT 23/08 A2996 RMK A01 T02300079  RH  038%=      5-min Rain = 0
KCH1 191812Z 19010KT 23/08 A2996 RMK A01 T02290080  RH  038%=      5-min Rain = 0
KCH1 191813Z 18008KT 23/08 A2996 RMK A01 T02280079  RH  038%=      5-min Rain = 0
KCH1 191814Z 17006KT 23/08 A2995 RMK A01 T02270079  RH  039%=      5-min Rain = 0
KCH1 191815Z 19007KT 23/08 A2995 RMK A01 T02280080  RH  039%=      5-min Rain = 0
KCH1 191816Z 18009KT 23/08 A2995 RMK A01 T02290080  RH  038%=      5-min Rain = 0
KCH1 191817Z 16008KT 23/08 A2995 RMK A01 T02300081  RH  039%=      5-min Rain = 0
KCH1 191818Z 16009KT 23/08 A2995 RMK A01 T02310080  RH  038%=      5-min Rain = 0
KCH1 191819Z 18009KT 23/08 A2995 RMK A01 T02320078  RH  037%=      5-min Rain = 0
KCH1 191820Z 20008KT 23/08 A2995 RMK A01 T02330076  RH  036%=      5-min Rain = 0
KCH1 191821Z 20008KT 23/08 A2995 RMK A01 T02320076  RH  037%=      5-min Rain = 0
KCH1 191822Z 21007KT 23/08 A2995 RMK A01 T02310075  RH  037%=      5-min Rain = 0
KCH1 191823Z 18007KT 23/08 A2995 RMK A01 T02310077  RH  037%=      5-min Rain = 0
KCH1 191824Z 19007KT 23/08 A2995 RMK A01 T02320077  RH  037%=      5-min Rain = 0
KCH1 191825Z 18010KT 23/08 A2995 RMK A01 T02330078  RH  037%=      5-min Rain = 0
KCH1 191826Z 18010KT 23/08 A2995 RMK A01 T02330077  RH  037%=      5-min Rain = 0
KCH1 191827Z 16012KT 23/08 A2994 RMK A01 T02320076  RH  037%=      5-min Rain = 0
KCH1 191828Z 15009KT 23/08 A2994 RMK A01 T02320075  RH  037%=      5-min Rain = 0
KCH1 191829Z 16008KT 23/08 A2994 RMK A01 T02310077  RH  037%=      5-min Rain = 0
KCH1 191830Z 17007KT 23/08 A2994 RMK A01 T02340078  RH  037%=      5-min Rain = 0
KCH1 191831Z 16008KT 24/08 A2994 RMK A01 T02350077  RH  036%=      5-min Rain = 0
KCH1 191832Z 17008KT 24/08 A2994 RMK A01 T02350077  RH  036%=      5-min Rain = 0
KCH1 191833Z 19007KT 23/08 A2994 RMK A01 T02340077  RH  036%=      5-min Rain = 0
KCH1 191834Z 20008KT 24/08 A2994 RMK A01 T02360075  RH  036%=      5-min Rain = 0
KCH1 191835Z 19010KT 24/07 A2994 RMK A01 T02360073  RH  035%=      5-min Rain = 0
KCH1 191836Z 19009KT 24/07 A2994 RMK A01 T02360070  RH  034%=      5-min Rain = 0
KCH1 191837Z 18007KT 24/07 A2994 RMK A01 T02350070  RH  035%=      5-min Rain = 0
KCH1 191838Z 19007KT 24/07 A2994 RMK A01 T02350071  RH  035%=      5-min Rain = 0
KCH1 191839Z 17007KT 24/07 A2994 RMK A01 T02360071  RH  035%=      5-min Rain = 0
KCH1 191840Z 16007KT 24/07 A2994 RMK A01 T02380074  RH  035%=      5-min Rain = 0
KCH1 191841Z 16008KT 24/07 A2994 RMK A01 T02400074  RH  034%=      5-min Rain = 0
KCH1 191842Z 15009KT 24/07 A2994 RMK A01 T02400072  RH  034%=      5-min Rain = 0
KCH1 191843Z 16008KT 24/07 A2993 RMK A01 T02400069  RH  033%=      5-min Rain = 0
KCH1 191844Z 18008KT 24/07 A2993 RMK A01 T02410072  RH  034%=      5-min Rain = 0
KCH1 191845Z 16008KT 24/07 A2993 RMK A01 T02420073  RH  034%=      5-min Rain = 0
KCH1 191846Z 17009KT 24/07 A2993 RMK A01 T02430073  RH  034%=      5-min Rain = 0
KCH1 191847Z 17009KT 24/07 A2993 RMK A01 T02420073  RH  034%=      5-min Rain = 0
KCH1 191848Z 16011KT 24/07 A2993 RMK A01 T02400073  RH  034%=      5-min Rain = 0
KCH1 191849Z 15012KT 24/07 A2993 RMK A01 T02400070  RH  034%=      5-min Rain = 0
KCH1 191850Z 16009KT 24/07 A2993 RMK A01 T02400071  RH  034%=      5-min Rain = 0
KCH1 191851Z 16010KT 24/07 A2993 RMK A01 T02390072  RH  034%=      5-min Rain = 0
KCH1 191852Z 16008KT 24/07 A2993 RMK A01 T02380072  RH  035%=      5-min Rain = 0
KCH1 191853Z 18010KT 24/07 A2993 RMK A01 T02380073  RH  035%=      5-min Rain = 0
KCH1 191854Z 19008KT 24/07 A2993 RMK A01 T02370073  RH  035%=      5-min Rain = 0
KCH1 191855Z 19008KT 24/08 A2993 RMK A01 T02370075  RH  035%=      5-min Rain = 0
KCH1 191856Z 19009KT 24/08 A2993 RMK A01 T02380075  RH  035%=      5-min Rain = 0
KCH1 191857Z 19008KT 24/07 A2993 RMK A01 T02380072  RH  034%=      5-min Rain = 0
KCH1 191858Z 17008G13KT 24/07 A2992 RMK A01 T02390072  RH  034%=      5-min Rain = 0
KCH1 191859Z 17010KT 24/07 A2992 RMK A01 T02420069  RH  033%=      5-min Rain = 0
KCH1 191900Z 17012KT 24/06 A2992 RMK A01 T02440056  RH  030%=      5-min Rain = 0
KCH1 191901Z 18008KT 25/05 A2992 RMK A01 T02450053  RH  029%=      5-min Rain = 0
KCH1 191902Z 18009KT 25/05 A2992 RMK A01 T02450051  RH  029%=      5-min Rain = 0
KCH1 191903Z 18007KT 25/05 A2992 RMK A01 T02460050  RH  028%=      5-min Rain = 0
KCH1 191904Z 17009KT 25/05 A2992 RMK A01 T02460053  RH  029%=      5-min Rain = 0
KCH1 191905Z 17011KT 25/06 A2992 RMK A01 T02470057  RH  029%=      5-min Rain = 0
KCH1 191906Z 17008KT 25/06 A2992 RMK A01 T02470060  RH  030%=      5-min Rain = 0
KCH1 191907Z 16007KT 25/06 A2992 RMK A01 T02500063  RH  030%=      5-min Rain = 0
KCH1 191908Z 18005KT 25/06 A2992 RMK A01 T02520062  RH  030%=      5-min Rain = 0
KCH1 191909Z 18009KT 25/06 A2992 RMK A01 T02530062  RH  029%=      5-min Rain = 0
KCH1 191910Z 17010KT 25/06 A2992 RMK A01 T02510061  RH  030%=      5-min Rain = 0
KCH1 191911Z 17010KT 25/06 A2992 RMK A01 T02480058  RH  029%=      5-min Rain = 0
KCH1 191912Z 15011KT 25/06 A2992 RMK A01 T02480057  RH  029%=      5-min Rain = 0
KCH1 191913Z 15011KT 25/06 A2992 RMK A01 T02490057  RH  029%=      5-min Rain = 0
KCH1 191914Z 17010KT 25/06 A2992 RMK A01 T02500058  RH  029%=      5-min Rain = 0
KCH1 191915Z 17011G16KT 25/06 A2992 RMK A01 T02520060  RH  029%=      5-min Rain = 0
KCH1 191916Z 17012KT 25/06 A2992 RMK A01 T02500057  RH  029%=      5-min Rain = 0
KCH1 191917Z 18008KT 25/06 A2991 RMK A01 T02480057  RH  029%=      5-min Rain = 0
KCH1 191918Z 20012KT 25/06 A2991 RMK A01 T02490060  RH  030%=      5-min Rain = 0
KCH1 191919Z 18009KT 25/06 A2991 RMK A01 T02480060  RH  030%=      5-min Rain = 0
KCH1 191920Z 20009KT 25/06 A2991 RMK A01 T02480062  RH  030%=      5-min Rain = 0
KCH1 191921Z 19012KT 25/06 A2991 RMK A01 T02490062  RH  030%=      5-min Rain = 0
KCH1 191922Z 18011KT 25/06 A2991 RMK A01 T02490063  RH  030%=      5-min Rain = 0
KCH1 191923Z 18012G17KT 25/07 A2991 RMK A01 T02480065  RH  031%=      5-min Rain = 0
KCH1 191924Z 19013KT 25/06 A2991 RMK A01 T02460064  RH  031%=      5-min Rain = 0
KCH1 191925Z 19013KT 24/07 A2991 RMK A01 T02440066  RH  032%=      5-min Rain = 0
KCH1 191926Z 20009KT 24/07 A2991 RMK A01 T02430067  RH  032%=      5-min Rain = 0
KCH1 191927Z 19008KT 24/07 A2991 RMK A01 T02430068  RH  033%=      5-min Rain = 0
KCH1 191928Z 18008KT 24/07 A2991 RMK A01 T02430067  RH  032%=      5-min Rain = 0
KCH1 191929Z 17008KT 24/07 A2991 RMK A01 T02430068  RH  032%=      5-min Rain = 0
KCH1 191930Z 18008KT 25/07 A2991 RMK A01 T02450068  RH  032%=      5-min Rain = 0
KCH1 191931Z 18009KT 25/07 A2991 RMK A01 T02460066  RH  032%=      5-min Rain = 0
KCH1 191932Z 19010KT 25/07 A2991 RMK A01 T02460066  RH  031%=      5-min Rain = 0
KCH1 191933Z 18011KT 25/07 A2991 RMK A01 T02460065  RH  031%=      5-min Rain = 0
KCH1 191934Z 17009KT 24/07 A2991 RMK A01 T02440065  RH  032%=      5-min Rain = 0
KCH1 191935Z 19009KT 25/07 A2991 RMK A01 T02450067  RH  032%=      5-min Rain = 0
KCH1 191936Z 18011KT 25/07 A2991 RMK A01 T02470068  RH  032%=      5-min Rain = 0
KCH1 191937Z 17009KT 25/07 A299 RMK A01 T02480067  RH  031%=      5-min Rain = 0
KCH1 191938Z 16008KT 25/07 A299 RMK A01 T02490067  RH  031%=      5-min Rain = 0
KCH1 191939Z 17009KT 25/07 A299 RMK A01 T02520069  RH  031%=      5-min Rain = 0
KCH1 191940Z 17010KT 25/07 A299 RMK A01 T02540068  RH  031%=      5-min Rain = 0
KCH1 191941Z 16008KT 25/07 A299 RMK A01 T02530069  RH  031%=      5-min Rain = 0
KCH1 191942Z 15010KT 25/07 A299 RMK A01 T02520069  RH  031%=      5-min Rain = 0
KCH1 191943Z 17008KT 25/07 A299 RMK A01 T02510070  RH  032%=      5-min Rain = 0
KCH1 191944Z 16006KT 25/07 A299 RMK A01 T02500071  RH  032%=      5-min Rain = 0
KCH1 191945Z 16011KT 25/07 A299 RMK A01 T02500072  RH  032%=      5-min Rain = 0
KCH1 191946Z 17011KT 25/07 A299 RMK A01 T02500071  RH  032%=      5-min Rain = 0
KCH1 191947Z 18008KT 25/07 A299 RMK A01 T02490071  RH  032%=      5-min Rain = 0
KCH1 191948Z 17008KT 25/07 A299 RMK A01 T02490073  RH  032%=      5-min Rain = 0
KCH1 191949Z 15008KT 25/07 A299 RMK A01 T02510073  RH  032%=      5-min Rain = 0
KCH1 191950Z 16008KT 25/08 A299 RMK A01 T02520075  RH  032%=      5-min Rain = 0
KCH1 191951Z 16009KT 25/08 A299 RMK A01 T02530075  RH  032%=      5-min Rain = 0
KCH1 191952Z 16010G15KT 25/08 A2989 RMK A01 T02540075  RH  032%=      5-min Rain = 0
KCH1 191953Z 17010KT 25/08 A2989 RMK A01 T02530075  RH  032%=      5-min Rain = 0
KCH1 191954Z 16012KT 25/08 A2989 RMK A01 T02530075  RH  032%=      5-min Rain = 0
KCH1 191955Z 17009KT 25/08 A2989 RMK A01 T02510075  RH  033%=      5-min Rain = 0
KCH1 191956Z 17007KT 25/08 A2989 RMK A01 T02510077  RH  033%=      5-min Rain = 0
KCH1 191957Z 16009KT 25/08 A2989 RMK A01 T02540076  RH  032%=      5-min Rain = 0
KCH1 191958Z 17008KT 26/08 A2989 RMK A01 T02560077  RH  032%=      5-min Rain = 0
KCH1 191959Z 17007G12KT 26/08 A2989 RMK A01 T02560077  RH  032%=      5-min Rain = 0
KCH1 192000Z 16009KT 26/08 A2989 RMK A01 T02550077  RH  032%=      5-min Rain = 0
KCH1 192001Z 17010KT 25/08 A2989 RMK A01 T02540076  RH  032%=      5-min Rain = 0
KCH1 192002Z 16006KT 25/08 A2989 RMK A01 T02530076  RH  032%=      5-min Rain = 0
KCH1 192003Z 15007KT 25/08 A2989 RMK A01 T02530075  RH  032%=      5-min Rain = 0
KCH1 192004Z 15008G13KT 25/08 A2989 RMK A01 T02510075  RH  033%=      5-min Rain = 0
KCH1 192005Z 17011KT 25/07 A2989 RMK A01 T02510074  RH  032%=      5-min Rain = 0
KCH1 192006Z 18009KT 25/07 A2989 RMK A01 T02510073  RH  032%=      5-min Rain = 0
KCH1 192007Z 17010KT 25/07 A2989 RMK A01 T02510074  RH  032%=      5-min Rain = 0
KCH1 192008Z 19007KT 25/08 A2989 RMK A01 T02530075  RH  032%=      5-min Rain = 0
KCH1 192009Z 19009KT 26/07 A2988 RMK A01 T02550074  RH  032%=      5-min Rain = 0
KCH1 192010Z 17009KT 26/07 A2988 RMK A01 T02550074  RH  032%=      5-min Rain = 0
KCH1 192011Z 16010KT 26/07 A2988 RMK A01 T02550074  RH  032%=      5-min Rain = 0
KCH1 192012Z 15009KT 26/07 A2988 RMK A01 T02550074  RH  032%=      5-min Rain = 0
KCH1 192013Z 16010KT 26/07 A2988 RMK A01 T02570073  RH  031%=      5-min Rain = 0
KCH1 192014Z 16008KT 26/07 A2988 RMK A01 T02560072  RH  031%=      5-min Rain = 0
KCH1 192015Z 15011KT 26/07 A2988 RMK A01 T02560073  RH  031%=      5-min Rain = 0
KCH1 192016Z 17012KT 26/07 A2988 RMK A01 T02560073  RH  031%=      5-min Rain = 0
KCH1 192017Z 16011KT 26/07 A2988 RMK A01 T02560073  RH  031%=      5-min Rain = 0
KCH1 192018Z 16010KT 26/07 A2988 RMK A01 T02560073  RH  031%=      5-min Rain = 0
KCH1 192019Z 17012KT 26/07 A2988 RMK A01 T02570074  RH  031%=      5-min Rain = 0
KCH1 192020Z 17010KT 26/07 A2988 RMK A01 T02570074  RH  031%=      5-min Rain = 0
KCH1 192021Z 17013KT 26/07 A2988 RMK A01 T02570074  RH  031%=      5-min Rain = 0
KCH1 192022Z 16009KT 26/07 A2988 RMK A01 T02580074  RH  031%=      5-min Rain = 0
KCH1 192023Z 17008KT 26/07 A2988 RMK A01 T02570074  RH  031%=      5-min Rain = 0
KCH1 192024Z 17009KT 26/07 A2988 RMK A01 T02570074  RH  031%=      5-min Rain = 0
KCH1 192025Z 18008KT 26/07 A2988 RMK A01 T02570073  RH  031%=      5-min Rain = 0
KCH1 192026Z 18010KT 26/08 A2988 RMK A01 T02580075  RH  031%=      5-min Rain = 0
KCH1 192027Z 16009KT 26/07 A2988 RMK A01 T02590073  RH  031%=      5-min Rain = 0
KCH1 192028Z 17006KT 26/07 A2988 RMK A01 T02600073  RH  030%=      5-min Rain = 0
KCH1 192029Z 16010KT 26/07 A2988 RMK A01 T02610073  RH  030%=      5-min Rain = 0
KCH1 192030Z 16012KT 26/07 A2988 RMK A01 T02610071  RH  030%=      5-min Rain = 0
KCH1 192031Z 16010KT 26/07 A2988 RMK A01 T02600070  RH  030%=      5-min Rain = 0
KCH1 192032Z 16011KT 26/07 A2987 RMK A01 T02590071  RH  030%=      5-min Rain = 0
KCH1 192033Z 14013KT 26/07 A2987 RMK A01 T02590070  RH  030%=      5-min Rain = 0
KCH1 192034Z 16012KT 26/07 A2987 RMK A01 T02590070  RH  030%=      5-min Rain = 0
KCH1 192035Z 16010KT 26/07 A2987 RMK A01 T02590067  RH  029%=      5-min Rain = 0
KCH1 192036Z 16009KT 26/07 A2987 RMK A01 T02600068  RH  029%=      5-min Rain = 0
KCH1 192037Z 15010KT 26/07 A2987 RMK A01 T02620068  RH  029%=      5-min Rain = 0
KCH1 192038Z 16012KT 26/07 A2987 RMK A01 T02630066  RH  028%=      5-min Rain = 0
KCH1 192039Z 16012G17KT 26/07 A2987 RMK A01 T02640066  RH  028%=      5-min Rain = 0
KCH1 192040Z 16011KT 26/07 A2987 RMK A01 T02640067  RH  029%=      5-min Rain = 0
KCH1 192041Z 18013KT 26/07 A2987 RMK A01 T02630068  RH  029%=      5-min Rain = 0
KCH1 192042Z 18012KT 26/07 A2987 RMK A01 T02630067  RH  029%=      5-min Rain = 0
KCH1 192043Z 19013KT 26/07 A2987 RMK A01 T02610067  RH  029%=      5-min Rain = 0
KCH1 192044Z 19013KT 26/07 A2987 RMK A01 T02590066  RH  029%=      5-min Rain = 0
KCH1 192045Z 21009KT 26/07 A2987 RMK A01 T02590066  RH  029%=      5-min Rain = 0
KCH1 192046Z 19008KT 26/07 A2987 RMK A01 T02590067  RH  029%=      5-min Rain = 0
KCH1 192047Z 19008G13KT 26/07 A2987 RMK A01 T02600068  RH  029%=      5-min Rain = 0
KCH1 192048Z 18009KT 26/07 A2987 RMK A01 T02610068  RH  029%=      5-min Rain = 0
KCH1 192049Z 18007KT 26/07 A2987 RMK A01 T02620068  RH  029%=      5-min Rain = 0
KCH1 192050Z 17008KT 26/07 A2987 RMK A01 T02630070  RH  029%=      5-min Rain = 0
KCH1 192051Z 16008KT 26/07 A2987 RMK A01 T02640068  RH  029%=      5-min Rain = 0
KCH1 192052Z 17012KT 26/07 A2987 RMK A01 T02640068  RH  029%=      5-min Rain = 0
KCH1 192053Z 15014KT 26/07 A2987 RMK A01 T02620066  RH  029%=      5-min Rain = 0
KCH1 192054Z 15009KT 26/07 A2987 RMK A01 T02600066  RH  029%=      5-min Rain = 0
KCH1 192055Z 15007KT 26/07 A2987 RMK A01 T02600068  RH  029%=      5-min Rain = 0
KCH1 192056Z 16008KT 26/07 A2987 RMK A01 T02630068  RH  029%=      5-min Rain = 0
KCH1 192057Z 18007KT 26/07 A2987 RMK A01 T02640069  RH  029%=      5-min Rain = 0
KCH1 192058Z 17012KT 27/07 A2987 RMK A01 T02650070  RH  029%=      5-min Rain = 0
KCH1 192059Z 16009KT 27/07 A2987 RMK A01 T02650069  RH  029%=      5-min Rain = 0
KCH1 192100Z 18012KT 26/07 A2987 RMK A01 T02640068  RH  029%=      5-min Rain = 0
KCH1 192101Z 16012KT 26/07 A2986 RMK A01 T02610066  RH  029%=      5-min Rain = 0
KCH1 192102Z 18010KT 26/07 A2987 RMK A01 T02600067  RH  029%=      5-min Rain = 0
KCH1 192103Z 18011KT 26/07 A2987 RMK A01 T02610068  RH  029%=      5-min Rain = 0
KCH1 192104Z 17009KT 26/07 A2987 RMK A01 T02610066  RH  029%=      5-min Rain = 0
KCH1 192105Z 16010KT 26/07 A2987 RMK A01 T02610068  RH  029%=      5-min Rain = 0
KCH1 192106Z 17009G14KT 26/07 A2986 RMK A01 T02600066  RH  029%=      5-min Rain = 0
KCH1 192107Z 18011G16KT 26/07 A2986 RMK A01 T02590067  RH  029%=      5-min Rain = 0
KCH1 192108Z 18011KT 26/07 A2986 RMK A01 T02580065  RH  029%=      5-min Rain = 0
KCH1 192109Z 17011KT 26/07 A2986 RMK A01 T02580065  RH  029%=      5-min Rain = 0
KCH1 192110Z 16010KT 26/06 A2986 RMK A01 T02570064  RH  029%=      5-min Rain = 0
KCH1 192111Z 17009KT 26/07 A2986 RMK A01 T02580065  RH  029%=      5-min Rain = 0
KCH1 192112Z 17012KT 26/07 A2986 RMK A01 T02610065  RH  029%=      5-min Rain = 0
KCH1 192113Z 19009G14KT 26/07 A2986 RMK A01 T02620066  RH  029%=      5-min Rain = 0
KCH1 192114Z 19009G14KT 26/07 A2986 RMK A01 T02630068  RH  029%=      5-min Rain = 0
KCH1 192115Z 20009KT 27/07 A2986 RMK A01 T02660068  RH  028%=      5-min Rain = 0
KCH1 192116Z 20011G17KT 27/07 A2986 RMK A01 T02660067  RH  028%=      5-min Rain = 0
KCH1 192117Z 19013KT 27/07 A2986 RMK A01 T02650065  RH  028%=      5-min Rain = 0
KCH1 192118Z 18012KT 26/07 A2986 RMK A01 T02640066  RH  028%=      5-min Rain = 0
KCH1 192119Z 19011KT 27/07 A2986 RMK A01 T02650066  RH  028%=      5-min Rain = 0
KCH1 192120Z 18013G18KT 27/07 A2986 RMK A01 T02650066  RH  028%=      5-min Rain = 0
KCH1 192121Z 18013KT 27/07 A2986 RMK A01 T02650067  RH  028%=      5-min Rain = 0
KCH1 192122Z 16012KT 27/07 A2986 RMK A01 T02650066  RH  028%=      5-min Rain = 0
KCH1 192123Z 17009KT 27/07 A2986 RMK A01 T02660068  RH  028%=      5-min Rain = 0
KCH1 192124Z 18014KT 27/07 A2986 RMK A01 T02670067  RH  028%=      5-min Rain = 0
KCH1 192125Z 17012KT 27/07 A2986 RMK A01 T02670066  RH  028%=      5-min Rain = 0
KCH1 192126Z 18012KT 27/07 A2986 RMK A01 T02660068  RH  028%=      5-min Rain = 0
KCH1 192127Z 18012KT 27/07 A2986 RMK A01 T02660067  RH  028%=      5-min Rain = 0
KCH1 192128Z 17013KT 27/07 A2986 RMK A01 T02650068  RH  028%=      5-min Rain = 0
KCH1 192129Z 18015G20KT 27/07 A2986 RMK A01 T02650068  RH  028%=      5-min Rain = 0
KCH1 192130Z 18012KT 26/07 A2986 RMK A01 T02640068  RH  029%=      5-min Rain = 0
KCH1 192131Z 18011KT 26/07 A2986 RMK A01 T02640069  RH  029%=      5-min Rain = 0
KCH1 192132Z 18009KT 27/07 A2986 RMK A01 T02650070  RH  029%=      5-min Rain = 0
KCH1 192133Z 17011G16KT 27/07 A2986 RMK A01 T02660070  RH  029%=      5-min Rain = 0
KCH1 192134Z 18013KT 27/07 A2986 RMK A01 T02670069  RH  028%=      5-min Rain = 0
KCH1 192135Z 17011KT 27/07 A2986 RMK A01 T02660070  RH  029%=      5-min Rain = 0
KCH1 192136Z 16010KT 27/07 A2986 RMK A01 T02660070  RH  029%=      5-min Rain = 0
KCH1 192137Z 17010KT 27/07 A2986 RMK A01 T02660070  RH  029%=      5-min Rain = 0
KCH1 192138Z 17010KT 27/07 A2986 RMK A01 T02650070  RH  029%=      5-min Rain = 0
KCH1 192139Z 17011KT 27/07 A2986 RMK A01 T02650070  RH  029%=      5-min Rain = 0
KCH1 192140Z 19013KT 27/07 A2986 RMK A01 T02650071  RH  029%=      5-min Rain = 0
KCH1 192141Z 17012G17KT 27/07 A2986 RMK A01 T02650071  RH  029%=      5-min Rain = 0
KCH1 192142Z 18014KT 27/07 A2986 RMK A01 T02650070  RH  029%=      5-min Rain = 0
KCH1 192143Z 18012G17KT 26/07 A2986 RMK A01 T02640070  RH  029%=      5-min Rain = 0
KCH1 192144Z 18012KT 26/07 A2986 RMK A01 T02640070  RH  029%=      5-min Rain = 0
KCH1 192145Z 18009KT 26/07 A2986 RMK A01 T02640070  RH  029%=      5-min Rain = 0
KCH1 192146Z 18013KT 26/07 A2986 RMK A01 T02640071  RH  029%=      5-min Rain = 0
KCH1 192147Z 18012KT 27/07 A2986 RMK A01 T02650070  RH  029%=      5-min Rain = 0
KCH1 192148Z 18011KT 26/07 A2986 RMK A01 T02640070  RH  029%=      5-min Rain = 0
KCH1 192149Z 18013KT 26/07 A2986 RMK A01 T02630070  RH  029%=      5-min Rain = 0
KCH1 192150Z 18010KT 26/07 A2986 RMK A01 T02630070  RH  029%=      5-min Rain = 0
KCH1 192151Z 18011KT 26/07 A2986 RMK A01 T02630071  RH  029%=      5-min Rain = 0
KCH1 192152Z 17011KT 26/07 A2986 RMK A01 T02630070  RH  029%=      5-min Rain = 0
KCH1 192153Z 18008KT 26/07 A2986 RMK A01 T02620072  RH  030%=      5-min Rain = 0
KCH1 192154Z 17009KT 26/07 A2986 RMK A01 T02630072  RH  030%=      5-min Rain = 0
KCH1 192155Z 18008KT 26/07 A2986 RMK A01 T02630073  RH  030%=      5-min Rain = 0
KCH1 192156Z 18012KT 26/07 A2985 RMK A01 T02640072  RH  030%=      5-min Rain = 0
KCH1 192157Z 16008KT 26/07 A2985 RMK A01 T02630073  RH  030%=      5-min Rain = 0
KCH1 192158Z 17011KT 26/07 A2985 RMK A01 T02630073  RH  030%=      5-min Rain = 0
KCH1 192159Z 17011KT 26/07 A2985 RMK A01 T02630073  RH  030%=      5-min Rain = 0
KCH1 192200Z 17008KT 26/07 A2985 RMK A01 T02620072  RH  030%=      5-min Rain = 0
KCH1 192201Z 17007KT 26/07 A2985 RMK A01 T02610074  RH  030%=      5-min Rain = 0
KCH1 192202Z 17008KT 26/07 A2985 RMK A01 T02620074  RH  030%=      5-min Rain = 0
KCH1 192203Z 18010G15KT 26/08 A2985 RMK A01 T02630075  RH  030%=      5-min Rain = 0
KCH1 192204Z 17010KT 26/07 A2985 RMK A01 T02630074  RH  030%=      5-min Rain = 0
KCH1 192205Z 17011G16KT 26/07 A2985 RMK A01 T02630074  RH  030%=      5-min Rain = 0
KCH1 192206Z 19013KT 26/07 A2985 RMK A01 T02630074  RH  030%=      5-min Rain = 0
KCH1 192207Z 18010KT 26/08 A2985 RMK A01 T02630075  RH  030%=      5-min Rain = 0
KCH1 192208Z 17011KT 26/08 A2985 RMK A01 T02630075  RH  030%=      5-min Rain = 0
KCH1 192209Z 18011KT 26/07 A2985 RMK A01 T02630074  RH  030%=      5-min Rain = 0
KCH1 192210Z 19012KT 26/07 A2985 RMK A01 T02630074  RH  030%=      5-min Rain = 0
KCH1 192211Z 18011KT 26/07 A2985 RMK A01 T02630074  RH  030%=      5-min Rain = 0
KCH1 192212Z 18010KT 26/07 A2985 RMK A01 T02620074  RH  030%=      5-min Rain = 0
KCH1 192213Z 18009KT 26/08 A2985 RMK A01 T02620075  RH  030%=      5-min Rain = 0
KCH1 192214Z 18009KT 26/08 A2985 RMK A01 T02620075  RH  030%=      5-min Rain = 0
KCH1 192215Z 17010KT 26/08 A2985 RMK A01 T02620075  RH  030%=      5-min Rain = 0
KCH1 192216Z 19010KT 26/08 A2985 RMK A01 T02620075  RH  030%=      5-min Rain = 0
KCH1 192217Z 17009KT 26/07 A2985 RMK A01 T02620074  RH  030%=      5-min Rain = 0
KCH1 192218Z 18010KT 26/08 A2985 RMK A01 T02620075  RH  030%=      5-min Rain = 0
KCH1 192219Z 18010KT 26/07 A2985 RMK A01 T02620074  RH  030%=      5-min Rain = 0
KCH1 192220Z 19008KT 26/07 A2985 RMK A01 T02620074  RH  030%=      5-min Rain = 0
KCH1 192221Z 17007KT 26/08 A2985 RMK A01 T02620075  RH  030%=      5-min Rain = 0
KCH1 192222Z 19008KT 26/07 A2985 RMK A01 T02610074  RH  030%=      5-min Rain = 0
KCH1 192223Z 19011KT 26/08 A2985 RMK A01 T02620075  RH  030%=      5-min Rain = 0
KCH1 192224Z 19008KT 26/08 A2986 RMK A01 T02620075  RH  031%=      5-min Rain = 0
KCH1 192225Z 18007KT 26/08 A2986 RMK A01 T02610076  RH  031%=      5-min Rain = 0
KCH1 192226Z 17009KT 26/08 A2986 RMK A01 T02610076  RH  031%=      5-min Rain = 0
KCH1 192227Z 17010KT 26/08 A2986 RMK A01 T02610076  RH  031%=      5-min Rain = 0
KCH1 192228Z 18011KT 26/08 A2986 RMK A01 T02600075  RH  031%=      5-min Rain = 0
KCH1 192229Z 17009KT 26/08 A2985 RMK A01 T02590075  RH  031%=      5-min Rain = 0
KCH1 192230Z 17010KT 26/08 A2985 RMK A01 T02590076  RH  031%=      5-min Rain = 0
KCH1 192231Z 18010KT 26/08 A2985 RMK A01 T02580076  RH  031%=      5-min Rain = 0
KCH1 192232Z 18010KT 26/08 A2985 RMK A01 T02580077  RH  032%=      5-min Rain = 0
KCH1 192233Z 17011KT 26/08 A2985 RMK A01 T02580077  RH  032%=      5-min Rain = 0
KCH1 192234Z 17010KT 26/08 A2985 RMK A01 T02580077  RH  032%=      5-min Rain = 0
KCH1 192235Z 18012KT 26/08 A2985 RMK A01 T02580077  RH  032%=      5-min Rain = 0
KCH1 192236Z 17012G17KT 26/08 A2985 RMK A01 T02570077  RH  032%=      5-min Rain = 0
KCH1 192237Z 19009KT 26/08 A2985 RMK A01 T02580078  RH  032%=      5-min Rain = 0
KCH1 192238Z 18011KT 26/08 A2985 RMK A01 T02580077  RH  032%=      5-min Rain = 0
KCH1 192239Z 18010KT 26/08 A2985 RMK A01 T02570075  RH  031%=      5-min Rain = 0
KCH1 192240Z 18010KT 26/08 A2985 RMK A01 T02570076  RH  032%=      5-min Rain = 0
KCH1 192241Z 19009KT 26/08 A2985 RMK A01 T02570077  RH  032%=      5-min Rain = 0
KCH1 192242Z 18009KT 26/08 A2985 RMK A01 T02570077  RH  032%=      5-min Rain = 0
KCH1 192243Z 19007KT 26/08 A2985 RMK A01 T02570077  RH  032%=      5-min Rain = 0
KCH1 192244Z 18011KT 26/08 A2985 RMK A01 T02560077  RH  032%=      5-min Rain = 0
KCH1 192245Z 19008KT 26/08 A2985 RMK A01 T02560077  RH  032%=      5-min Rain = 0
KCH1 192246Z 19009G15KT 26/08 A2985 RMK A01 T02560077  RH  032%=      5-min Rain = 0
KCH1 192247Z 19010KT 26/08 A2985 RMK A01 T02560076  RH  032%=      5-min Rain = 0
KCH1 192248Z 18007KT 26/08 A2985 RMK A01 T02550076  RH  032%=      5-min Rain = 0
KCH1 192249Z 19008KT 26/08 A2985 RMK A01 T02550077  RH  032%=      5-min Rain = 0
KCH1 192250Z 19010KT 26/08 A2985 RMK A01 T02550076  RH  032%=      5-min Rain = 0
KCH1 192251Z 19010G15KT 26/08 A2985 RMK A01 T02550076  RH  032%=      5-min Rain = 0
KCH1 192252Z 18007KT 25/08 A2985 RMK A01 T02540076  RH  032%=      5-min Rain = 0
KCH1 192253Z 18007KT 25/08 A2985 RMK A01 T02540076  RH  032%=      5-min Rain = 0
KCH1 192254Z 19010KT 25/08 A2985 RMK A01 T02540076  RH  032%=      5-min Rain = 0
KCH1 192255Z 18008KT 25/08 A2985 RMK A01 T02530076  RH  032%=      5-min Rain = 0
KCH1 192256Z 18007KT 25/08 A2985 RMK A01 T02530077  RH  033%=      5-min Rain = 0
KCH1 192257Z 18006KT 25/08 A2985 RMK A01 T02520077  RH  033%=      5-min Rain = 0
KCH1 192258Z 18006KT 25/08 A2985 RMK A01 T02520077  RH  033%=      5-min Rain = 0
KCH1 192259Z 17006KT 25/08 A2985 RMK A01 T02520078  RH  033%=      5-min Rain = 0
KCH1 192300Z 17006KT 25/08 A2985 RMK A01 T02510078  RH  033%=      5-min Rain = 0
KCH1 192301Z 17006KT 25/08 A2985 RMK A01 T02510078  RH  033%=      5-min Rain = 0
KCH1 192302Z 17006KT 25/08 A2985 RMK A01 T02500078  RH  033%=      5-min Rain = 0
KCH1 192303Z 18007KT 25/08 A2985 RMK A01 T02490078  RH  034%=      5-min Rain = 0
KCH1 192304Z 18007KT 25/08 A2985 RMK A01 T02480078  RH  034%=      5-min Rain = 0
KCH1 192305Z 18006KT 25/08 A2985 RMK A01 T02470078  RH  034%=      5-min Rain = 0
KCH1 192306Z 18006KT 25/08 A2985 RMK A01 T02460078  RH  034%=      5-min Rain = 0
KCH1 192307Z 18006KT 25/08 A2985 RMK A01 T02450078  RH  034%=      5-min Rain = 0
KCH1 192308Z 18007KT 25/08 A2985 RMK A01 T02450078  RH  034%=      5-min Rain = 0
KCH1 192309Z 17006KT 24/08 A2985 RMK A01 T02440078  RH  035%=      5-min Rain = 0
KCH1 192310Z 17006KT 24/08 A2985 RMK A01 T02430078  RH  035%=      5-min Rain = 0
KCH1 192311Z 18008KT 24/08 A2985 RMK A01 T02420077  RH  035%=      5-min Rain = 0
KCH1 192312Z 18008KT 24/08 A2985 RMK A01 T02420077  RH  035%=      5-min Rain = 0
KCH1 192313Z 18008KT 24/08 A2985 RMK A01 T02410077  RH  035%=      5-min Rain = 0
KCH1 192314Z 18006KT 24/08 A2985 RMK A01 T02410077  RH  035%=      5-min Rain = 0
KCH1 192315Z 17007KT 24/08 A2985 RMK A01 T02400077  RH  035%=      5-min Rain = 0
KCH1 192316Z 17006KT 24/08 A2985 RMK A01 T02400077  RH  035%=      5-min Rain = 0
KCH1 192317Z 17005KT 24/08 A2985 RMK A01 T02390077  RH  035%=      5-min Rain = 0
KCH1 192318Z 18007KT 24/08 A2985 RMK A01 T02390077  RH  036%=      5-min Rain = 0
KCH1 192319Z 17007KT 24/08 A2985 RMK A01 T02380077  RH  036%=      5-min Rain = 0
KCH1 192320Z 17005KT 24/08 A2985 RMK A01 T02380077  RH  036%=      5-min Rain = 0
KCH1 192321Z 17006KT 24/08 A2985 RMK A01 T02370077  RH  036%=      5-min Rain = 0
KCH1 192322Z 17005KT 24/08 A2985 RMK A01 T02360077  RH  036%=      5-min Rain = 0
KCH1 192323Z 18007KT 24/08 A2985 RMK A01 T02350077  RH  036%=      5-min Rain = 0
KCH1 192324Z 17006KT 24/08 A2985 RMK A01 T02350077  RH  036%=      5-min Rain = 0
KCH1 192325Z 18005KT 24/08 A2985 RMK A01 T02350077  RH  036%=      5-min Rain = 0
KCH1 192326Z 17006KT 24/08 A2985 RMK A01 T02350078  RH  036%=      5-min Rain = 0
KCH1 192327Z 17006KT 23/08 A2985 RMK A01 T02340077  RH  037%=      5-min Rain = 0
KCH1 192328Z 17006KT 23/08 A2985 RMK A01 T02330078  RH  037%=      5-min Rain = 0
KCH1 192329Z 17006KT 23/08 A2985 RMK A01 T02330078  RH  037%=      5-min Rain = 0
KCH1 192330Z 17006KT 23/08 A2985 RMK A01 T02320078  RH  037%=      5-min Rain = 0
KCH1 192331Z 17006KT 23/08 A2985 RMK A01 T02310078  RH  037%=      5-min Rain = 0
KCH1 192332Z 17006KT 23/08 A2985 RMK A01 T02300077  RH  037%=      5-min Rain = 0
KCH1 192333Z 17006KT 23/08 A2985 RMK A01 T02310077  RH  037%=      5-min Rain = 0
KCH1 192334Z 17006KT 23/08 A2985 RMK A01 T02300077  RH  038%=      5-min Rain = 0
KCH1 192335Z 17006KT 23/08 A2985 RMK A01 T02290077  RH  038%=      5-min Rain = 0
KCH1 192336Z 17005KT 23/08 A2985 RMK A01 T02280077  RH  038%=      5-min Rain = 0
KCH1 192337Z 17006KT 23/08 A2985 RMK A01 T02270077  RH  038%=      5-min Rain = 0
KCH1 192338Z 16006KT 23/08 A2985 RMK A01 T02260077  RH  038%=      5-min Rain = 0
KCH1 192339Z 17006KT 23/08 A2985 RMK A01 T02250077  RH  038%=      5-min Rain = 0
KCH1 192340Z 17006KT 23/08 A2985 RMK A01 T02250077  RH  039%=      5-min Rain = 0
KCH1 192341Z 17006KT 23/08 A2985 RMK A01 T02250077  RH  039%=      5-min Rain = 0
KCH1 192342Z 17006KT 22/08 A2985 RMK A01 T02240077  RH  039%=      5-min Rain = 0
KCH1 192343Z 16006KT 22/08 A2985 RMK A01 T02240077  RH  039%=      5-min Rain = 0
KCH1 192344Z 17006KT 22/08 A2985 RMK A01 T02240077  RH  039%=      5-min Rain = 0
KCH1 192345Z 17006KT 22/08 A2985 RMK A01 T02230077  RH  039%=      5-min Rain = 0
KCH1 192346Z 16006KT 22/08 A2985 RMK A01 T02230077  RH  039%=      5-min Rain = 0
KCH1 192347Z 17006KT 22/08 A2985 RMK A01 T02220076  RH  039%=      5-min Rain = 0
KCH1 192348Z 17007KT 22/08 A2985 RMK A01 T02210076  RH  039%=      5-min Rain = 0
KCH1 192349Z 17006KT 22/08 A2985 RMK A01 T02210077  RH  039%=      5-min Rain = 0
KCH1 192350Z 17006KT 22/08 A2985 RMK A01 T02210077  RH  040%=      5-min Rain = 0
KCH1 192351Z 17007KT 22/08 A2985 RMK A01 T02190076  RH  040%=      5-min Rain = 0
KCH1 192352Z 18006KT 22/08 A2985 RMK A01 T02190077  RH  040%=      5-min Rain = 0
KCH1 192353Z 18007KT 22/08 A2985 RMK A01 T02190076  RH  040%=      5-min Rain = 0
KCH1 192354Z 18006KT 22/08 A2985 RMK A01 T02190077  RH  040%=      5-min Rain = 0
KCH1 192355Z 17007KT 22/08 A2985 RMK A01 T02180077  RH  040%=      5-min Rain = 0
KCH1 192356Z 18008KT 22/08 A2985 RMK A01 T02180077  RH  040%=      5-min Rain = 0
KCH1 192357Z 18006KT 22/08 A2985 RMK A01 T02180077  RH  040%=      5-min Rain = 0
KCH1 192358Z 18006KT 22/08 A2985 RMK A01 T02180077  RH  040%=      5-min Rain = 0
KCH1 192359Z 19006KT 22/08 A2985 RMK A01 T02170077  RH  040%=      5-min Rain = 0
KCH1 200000Z 18005KT 22/08 A2985 RMK A01 T02170077  RH  041%=      5-min Rain = 0
KCH1 200001Z 18006KT 22/08 A2985 RMK A01 T02160077  RH  041%=      5-min Rain = 0
KCH1 200002Z 18006KT 22/08 A2985 RMK A01 T02150077  RH  041%=      5-min Rain = 0
KCH1 200003Z 18006KT 21/08 A2985 RMK A01 T02140077  RH  041%=      5-min Rain = 0
KCH1 200004Z 16006KT 21/08 A2985 RMK A01 T02140076  RH  041%=      5-min Rain = 0
KCH1 200005Z 16006KT 21/08 A2985 RMK A01 T02130076  RH  041%=      5-min Rain = 0
KCH1 200006Z 16006KT 21/08 A2985 RMK A01 T02130076  RH  041%=      5-min Rain = 0
KCH1 200007Z 16005KT 21/08 A2985 RMK A01 T02120076  RH  042%=      5-min Rain = 0
KCH1 200008Z 17005KT 21/08 A2985 RMK A01 T02120076  RH  042%=      5-min Rain = 0
KCH1 200009Z 18006KT 21/08 A2985 RMK A01 T02110076  RH  042%=      5-min Rain = 0
KCH1 200010Z 17006KT 21/08 A2985 RMK A01 T02110076  RH  042%=      5-min Rain = 0
KCH1 200011Z 17006KT 21/08 A2985 RMK A01 T02100076  RH  042%=      5-min Rain = 0
KCH1 200012Z 18005KT 21/08 A2985 RMK A01 T02100076  RH  042%=      5-min Rain = 0
KCH1 200013Z 17006KT 21/08 A2985 RMK A01 T02100076  RH  042%=      5-min Rain = 0
KCH1 200014Z 18005KT 21/08 A2985 RMK A01 T02090076  RH  042%=      5-min Rain = 0
KCH1 200015Z 17005KT 21/08 A2985 RMK A01 T02090076  RH  042%=      5-min Rain = 0
KCH1 200016Z 17006KT 21/08 A2986 RMK A01 T02090075  RH  042%=      5-min Rain = 0
KCH1 200017Z 17006KT 21/08 A2986 RMK A01 T02090075  RH  042%=      5-min Rain = 0
KCH1 200018Z 17006KT 21/08 A2986 RMK A01 T02090076  RH  042%=      5-min Rain = 0
KCH1 200019Z 17005KT 21/08 A2986 RMK A01 T02080075  RH  042%=      5-min Rain = 0
KCH1 200020Z 17005KT 21/08 A2986 RMK A01 T02070075  RH  042%=      5-min Rain = 0
KCH1 200021Z 17005KT 21/08 A2986 RMK A01 T02060075  RH  043%=      5-min Rain = 0
KCH1 200022Z 17005KT 21/08 A2986 RMK A01 T02060075  RH  043%=      5-min Rain = 0
KCH1 200023Z 17005KT 21/08 A2986 RMK A01 T02050075  RH  043%=      5-min Rain = 0
KCH1 200024Z 17005KT 21/08 A2986 RMK A01 T02050075  RH  043%=      5-min Rain = 0
KCH1 200025Z 18005KT 21/08 A2986 RMK A01 T02050075  RH  043%=      5-min Rain = 0
KCH1 200026Z 17005KT 20/08 A2986 RMK A01 T02040075  RH  043%=      5-min Rain = 0
KCH1 200027Z 17004KT 20/08 A2986 RMK A01 T02040075  RH  043%=      5-min Rain = 0
KCH1 200028Z 17004KT 20/08 A2986 RMK A01 T02030075  RH  044%=      5-min Rain = 0
KCH1 200029Z 17004KT 20/07 A2986 RMK A01 T02020074  RH  044%=      5-min Rain = 0
KCH1 200030Z 17004KT 20/08 A2986 RMK A01 T02010075  RH  044%=      5-min Rain = 0
KCH1 200031Z 17004KT 20/08 A2986 RMK A01 T02010075  RH  044%=      5-min Rain = 0
KCH1 200032Z 16004KT 20/07 A2986 RMK A01 T02000074  RH  044%=      5-min Rain = 0
KCH1 200033Z 16004KT 20/07 A2986 RMK A01 T02000074  RH  044%=      5-min Rain = 0
KCH1 200034Z 16004KT 20/07 A2986 RMK A01 T01990074  RH  044%=      5-min Rain = 0
KCH1 200035Z 16004KT 20/07 A2986 RMK A01 T01980074  RH  045%=      5-min Rain = 0
KCH1 200036Z 16004KT 20/07 A2986 RMK A01 T01980074  RH  045%=      5-min Rain = 0
KCH1 200037Z 17004KT 20/07 A2986 RMK A01 T01970074  RH  045%=      5-min Rain = 0
KCH1 200038Z 17004KT 20/07 A2986 RMK A01 T01960074  RH  045%=      5-min Rain = 0
KCH1 200039Z 17004KT 20/07 A2986 RMK A01 T01960074  RH  045%=      5-min Rain = 0
KCH1 200040Z 17004KT 20/07 A2987 RMK A01 T01950074  RH  045%=      5-min Rain = 0
KCH1 200041Z 17004KT 20/07 A2987 RMK A01 T01950074  RH  046%=      5-min Rain = 0
KCH1 200042Z 17004KT 19/07 A2987 RMK A01 T01940074  RH  046%=      5-min Rain = 0
KCH1 200043Z 17004KT 19/07 A2987 RMK A01 T01930074  RH  046%=      5-min Rain = 0
KCH1 200044Z 17004KT 19/07 A2987 RMK A01 T01930074  RH  046%=      5-min Rain = 0
KCH1 200045Z 16004KT 19/07 A2987 RMK A01 T01930074  RH  046%=      5-min Rain = 0
KCH1 200046Z 16004KT 19/07 A2987 RMK A01 T01920074  RH  046%=      5-min Rain = 0
KCH1 200047Z 16004KT 19/07 A2986 RMK A01 T01930074  RH  046%=      5-min Rain = 0
KCH1 200048Z 16004KT 19/07 A2986 RMK A01 T01920074  RH  046%=      5-min Rain = 0
KCH1 200049Z 16004KT 19/07 A2986 RMK A01 T01920074  RH  046%=      5-min Rain = 0
KCH1 200050Z 16004KT 19/07 A2986 RMK A01 T01910074  RH  046%=      5-min Rain = 0
KCH1 200051Z 16004KT 19/07 A2986 RMK A01 T01910074  RH  047%=      5-min Rain = 0
KCH1 200052Z 16004KT 19/07 A2986 RMK A01 T01900074  RH  047%=      5-min Rain = 0
KCH1 200053Z 16005KT 19/07 A2987 RMK A01 T01900074  RH  047%=      5-min Rain = 0
KCH1 200054Z 17005KT 19/07 A2987 RMK A01 T01890074  RH  047%=      5-min Rain = 0
KCH1 200055Z 17005KT 19/07 A2987 RMK A01 T01880074  RH  047%=      5-min Rain = 0
KCH1 200056Z 17005KT 19/07 A2987 RMK A01 T01880073  RH  047%=      5-min Rain = 0
KCH1 200057Z 17005KT 19/07 A2987 RMK A01 T01880074  RH  047%=      5-min Rain = 0
KCH1 200058Z 17005KT 19/07 A2987 RMK A01 T01870074  RH  048%=      5-min Rain = 0
KCH1 200059Z 17005KT 19/07 A2987 RMK A01 T01870074  RH  048%=      5-min Rain = 0
KCH1 200100Z 17005KT 19/07 A2987 RMK A01 T01860074  RH  048%=      5-min Rain = 0
KCH1 200101Z 18005KT 19/07 A2987 RMK A01 T01860074  RH  048%=      5-min Rain = 0
KCH1 200102Z 18005KT 19/07 A2987 RMK A01 T01850074  RH  048%=      5-min Rain = 0
KCH1 200103Z 18005KT 19/07 A2987 RMK A01 T01850074  RH  048%=      5-min Rain = 0
KCH1 200104Z 18005KT 19/07 A2987 RMK A01 T01850074  RH  048%=      5-min Rain = 0
KCH1 200105Z 17005KT 19/07 A2987 RMK A01 T01850074  RH  048%=      5-min Rain = 0
KCH1 200106Z 17005KT 19/07 A2987 RMK A01 T01850074  RH  048%=      5-min Rain = 0
KCH1 200107Z 17005KT 18/07 A2987 RMK A01 T01840074  RH  049%=      5-min Rain = 0
KCH1 200108Z 17005KT 18/07 A2987 RMK A01 T01840074  RH  049%=      5-min Rain = 0
KCH1 200109Z 17006KT 18/07 A2987 RMK A01 T01830074  RH  049%=      5-min Rain = 0
KCH1 200110Z 17005KT 18/07 A2987 RMK A01 T01830074  RH  049%=      5-min Rain = 0
KCH1 200111Z 17005KT 18/07 A2987 RMK A01 T01820074  RH  049%=      5-min Rain = 0
KCH1 200112Z 17005KT 18/07 A2987 RMK A01 T01820074  RH  049%=      5-min Rain = 0
KCH1 200113Z 17005KT 18/08 A2987 RMK A01 T01820075  RH  049%=      5-min Rain = 0
KCH1 200114Z 17005KT 18/07 A2987 RMK A01 T01810074  RH  050%=      5-min Rain = 0
KCH1 200115Z 18004KT 18/07 A2987 RMK A01 T01810074  RH  050%=      5-min Rain = 0
KCH1 200116Z 18004KT 18/07 A2987 RMK A01 T01800074  RH  050%=      5-min Rain = 0
KCH1 200117Z 18004KT 18/07 A2987 RMK A01 T01800074  RH  050%=      5-min Rain = 0
KCH1 200118Z 18004KT 18/07 A2987 RMK A01 T01800074  RH  050%=      5-min Rain = 0
KCH1 200119Z 17004KT 18/07 A2987 RMK A01 T01790074  RH  050%=      5-min Rain = 0
KCH1 200120Z 17005KT 18/07 A2987 RMK A01 T01790074  RH  050%=      5-min Rain = 0
KCH1 200121Z 17004KT 18/07 A2987 RMK A01 T01790074  RH  050%=      5-min Rain = 0
KCH1 200122Z 16005KT 18/07 A2987 RMK A01 T01780074  RH  050%=      5-min Rain = 0
KCH1 200123Z 17005KT 18/07 A2987 RMK A01 T01780074  RH  051%=      5-min Rain = 0
KCH1 200124Z 17005KT 18/07 A2987 RMK A01 T01780074  RH  051%=      5-min Rain = 0
KCH1 200125Z 16005KT 18/07 A2987 RMK A01 T01770074  RH  051%=      5-min Rain = 0
KCH1 200126Z 16005KT 18/07 A2987 RMK A01 T01760074  RH  051%=      5-min Rain = 0
KCH1 200127Z 17005KT 18/07 A2987 RMK A01 T01760074  RH  051%=      5-min Rain = 0
KCH1 200128Z 17005KT 18/07 A2987 RMK A01 T01750074  RH  051%=      5-min Rain = 0
KCH1 200129Z 16005KT 17/07 A2987 RMK A01 T01740074  RH  052%=      5-min Rain = 0
KCH1 200130Z 17005KT 17/07 A2987 RMK A01 T01740074  RH  052%=      5-min Rain = 0
KCH1 200131Z 17005KT 17/07 A2987 RMK A01 T01740073  RH  051%=      5-min Rain = 0
KCH1 200132Z 17005KT 17/07 A2987 RMK A01 T01740073  RH  051%=      5-min Rain = 0
KCH1 200133Z 17005KT 17/07 A2987 RMK A01 T01740073  RH  051%=      5-min Rain = 0
KCH1 200134Z 17005KT 18/07 A2987 RMK A01 T01750074  RH  051%=      5-min Rain = 0
KCH1 200135Z 17004KT 18/07 A2987 RMK A01 T01750074  RH  051%=      5-min Rain = 0
KCH1 200136Z 17005KT 18/07 A2987 RMK A01 T01750074  RH  051%=      5-min Rain = 0
KCH1 200137Z 17005KT 18/07 A2987 RMK A01 T01750074  RH  051%=      5-min Rain = 0
KCH1 200138Z 17005KT 18/07 A2987 RMK A01 T01750074  RH  051%=      5-min Rain = 0
KCH1 200139Z 17005KT 17/07 A2987 RMK A01 T01740074  RH  052%=      5-min Rain = 0
KCH1 200140Z 17006KT 17/07 A2987 RMK A01 T01740074  RH  052%=      5-min Rain = 0
KCH1 200141Z 17006KT 17/07 A2987 RMK A01 T01740074  RH  052%=      5-min Rain = 0
KCH1 200142Z 16006KT 17/07 A2987 RMK A01 T01740074  RH  052%=      5-min Rain = 0
KCH1 200143Z 17005KT 18/07 A2987 RMK A01 T01750074  RH  051%=      5-min Rain = 0
KCH1 200144Z 17006KT 18/07 A2987 RMK A01 T01750074  RH  052%=      5-min Rain = 0
KCH1 200145Z 17006KT 18/07 A2987 RMK A01 T01750074  RH  052%=      5-min Rain = 0
KCH1 200146Z 17006KT 17/07 A2987 RMK A01 T01740074  RH  052%=      5-min Rain = 0
KCH1 200147Z 17006KT 18/07 A2987 RMK A01 T01750074  RH  051%=      5-min Rain = 0
KCH1 200148Z 17006KT 18/07 A2987 RMK A01 T01750074  RH  051%=      5-min Rain = 0
KCH1 200149Z 17006KT 18/07 A2987 RMK A01 T01750074  RH  051%=      5-min Rain = 0
KCH1 200150Z 17006KT 18/07 A2987 RMK A01 T01750074  RH  051%=      5-min Rain = 0
KCH1 200151Z 17005KT 18/07 A2987 RMK A01 T01750074  RH  051%=      5-min Rain = 0
KCH1 200152Z 17006KT 18/07 A2987 RMK A01 T01760074  RH  051%=      5-min Rain = 0
KCH1 200153Z 17006KT 18/07 A2987 RMK A01 T01760074  RH  051%=      5-min Rain = 0
KCH1 200154Z 17005KT 18/07 A2987 RMK A01 T01760074  RH  051%=      5-min Rain = 0
KCH1 200155Z 17005KT 18/07 A2987 RMK A01 T01760074  RH  051%=      5-min Rain = 0
KCH1 200156Z 16006KT 18/07 A2987 RMK A01 T01760074  RH  051%=      5-min Rain = 0
KCH1 200157Z 16006KT 18/07 A2987 RMK A01 T01750074  RH  051%=      5-min Rain = 0
KCH1 200158Z 17006KT 18/07 A2987 RMK A01 T01750074  RH  051%=      5-min Rain = 0
KCH1 200159Z 17006KT 18/07 A2987 RMK A01 T01750074  RH  051%=      5-min Rain = 0
KCH1 200200Z 17005KT 18/07 A2988 RMK A01 T01750074  RH  051%=      5-min Rain = 0
KCH1 200201Z 17005KT 17/07 A2988 RMK A01 T01740073  RH  052%=      5-min Rain = 0
KCH1 200202Z 17005KT 17/07 A2988 RMK A01 T01740074  RH  052%=      5-min Rain = 0
KCH1 200203Z 17005KT 17/07 A2988 RMK A01 T01730073  RH  052%=      5-min Rain = 0
KCH1 200204Z 17004KT 17/07 A2988 RMK A01 T01730073  RH  052%=      5-min Rain = 0
KCH1 200205Z 17004KT 17/07 A2988 RMK A01 T01720073  RH  052%=      5-min Rain = 0
KCH1 200206Z 17004KT 17/07 A2988 RMK A01 T01720074  RH  052%=      5-min Rain = 0
KCH1 200207Z 17004KT 17/07 A2988 RMK A01 T01710073  RH  052%=      5-min Rain = 0
KCH1 200208Z 17004KT 17/07 A2988 RMK A01 T01710073  RH  053%=      5-min Rain = 0
KCH1 200209Z 17004KT 17/07 A2988 RMK A01 T01710074  RH  053%=      5-min Rain = 0
KCH1 200210Z 17003KT 17/07 A2988 RMK A01 T01700073  RH  053%=      5-min Rain = 0
KCH1 200211Z 18003KT 17/07 A2988 RMK A01 T01690073  RH  053%=      5-min Rain = 0
KCH1 200212Z 17004KT 17/07 A2988 RMK A01 T01690073  RH  053%=      5-min Rain = 0
KCH1 200213Z 17004KT 17/07 A2988 RMK A01 T01690073  RH  053%=      5-min Rain = 0
KCH1 200214Z 18003KT 17/07 A2988 RMK A01 T01690073  RH  053%=      5-min Rain = 0
KCH1 200215Z 18003KT 17/07 A2988 RMK A01 T01690074  RH  053%=      5-min Rain = 0
KCH1 200216Z 17004KT 17/07 A2988 RMK A01 T01680073  RH  053%=      5-min Rain = 0
KCH1 200217Z 18003KT 17/07 A2988 RMK A01 T01680073  RH  053%=      5-min Rain = 0
KCH1 200218Z 18004KT 17/07 A2988 RMK A01 T01670073  RH  054%=      5-min Rain = 0
KCH1 200219Z 18004KT 17/07 A2988 RMK A01 T01670073  RH  054%=      5-min Rain = 0
KCH1 200220Z 19005KT 17/07 A2988 RMK A01 T01660073  RH  054%=      5-min Rain = 0
KCH1 200221Z 19004KT 17/07 A2988 RMK A01 T01660073  RH  054%=      5-min Rain = 0
KCH1 200222Z 18004KT 17/07 A2988 RMK A01 T01660073  RH  054%=      5-min Rain = 0
KCH1 200223Z 19005KT 17/07 A2988 RMK A01 T01650073  RH  054%=      5-min Rain = 0
KCH1 200224Z 18005KT 17/07 A2988 RMK A01 T01650073  RH  055%=      5-min Rain = 0
KCH1 200225Z 18005KT 16/07 A2988 RMK A01 T01640073  RH  055%=      5-min Rain = 0
KCH1 200226Z 18005KT 16/07 A2988 RMK A01 T01640073  RH  055%=      5-min Rain = 0
KCH1 200227Z 18005KT 16/07 A2988 RMK A01 T01640073  RH  055%=      5-min Rain = 0
KCH1 200228Z 19005KT 16/07 A2988 RMK A01 T01640074  RH  055%=      5-min Rain = 0
KCH1 200229Z 19005KT 16/07 A2988 RMK A01 T01640074  RH  055%=      5-min Rain = 0
KCH1 200230Z 19005KT 16/07 A2988 RMK A01 T01640074  RH  055%=      5-min Rain = 0
KCH1 200231Z 19006KT 16/08 A2988 RMK A01 T01640075  RH  055%=      5-min Rain = 0
KCH1 200232Z 19006KT 16/08 A2988 RMK A01 T01640075  RH  056%=      5-min Rain = 0
KCH1 200233Z 19005KT 16/08 A2988 RMK A01 T01640075  RH  055%=      5-min Rain = 0
KCH1 200234Z 19005KT 16/08 A2989 RMK A01 T01640075  RH  055%=      5-min Rain = 0
KCH1 200235Z 19005KT 16/08 A2989 RMK A01 T01640075  RH  055%=      5-min Rain = 0
KCH1 200236Z 18006KT 16/08 A2989 RMK A01 T01640075  RH  056%=      5-min Rain = 0
KCH1 200237Z 19005KT 17/08 A2989 RMK A01 T01650076  RH  055%=      5-min Rain = 0
KCH1 200238Z 19006KT 17/08 A2989 RMK A01 T01650075  RH  055%=      5-min Rain = 0
KCH1 200239Z 18006KT 17/08 A2989 RMK A01 T01660076  RH  055%=      5-min Rain = 0
KCH1 200240Z 19006KT 17/08 A2989 RMK A01 T01660076  RH  055%=      5-min Rain = 0
KCH1 200241Z 18005KT 17/08 A2989 RMK A01 T01660076  RH  055%=      5-min Rain = 0
KCH1 200242Z 19006KT 17/08 A2989 RMK A01 T01670076  RH  055%=      5-min Rain = 0
KCH1 200243Z 18005KT 17/08 A2989 RMK A01 T01670076  RH  055%=      5-min Rain = 0
KCH1 200244Z 18006KT 17/08 A2989 RMK A01 T01670076  RH  055%=      5-min Rain = 0
KCH1 200245Z 18006KT 17/08 A2989 RMK A01 T01680076  RH  055%=      5-min Rain = 0
KCH1 200246Z 18007KT 17/08 A2989 RMK A01 T01680076  RH  055%=      5-min Rain = 0
KCH1 200247Z 18006KT 17/08 A2989 RMK A01 T01690077  RH  055%=      5-min Rain = 0
KCH1 200248Z 17007KT 17/08 A2988 RMK A01 T01700077  RH  054%=      5-min Rain = 0
KCH1 200249Z 17006KT 17/08 A2988 RMK A01 T01710077  RH  054%=      5-min Rain = 0
KCH1 200250Z 17007KT 17/08 A2988 RMK A01 T01710077  RH  054%=      5-min Rain = 0
KCH1 200251Z 17006KT 17/08 A2988 RMK A01 T01730078  RH  054%=      5-min Rain = 0
KCH1 200252Z 17006KT 17/08 A2988 RMK A01 T01720077  RH  054%=      5-min Rain = 0
KCH1 200253Z 18006KT 17/08 A2988 RMK A01 T01730078  RH  053%=      5-min Rain = 0
KCH1 200254Z 17006KT 17/08 A2988 RMK A01 T01730077  RH  053%=      5-min Rain = 0
KCH1 200255Z 17006KT 17/08 A2988 RMK A01 T01740078  RH  053%=      5-min Rain = 0
KCH1 200256Z 17006KT 17/08 A2988 RMK A01 T01740077  RH  053%=      5-min Rain = 0
KCH1 200257Z 17005KT 17/08 A2989 RMK A01 T01730077  RH  053%=      5-min Rain = 0
KCH1 200258Z 17006KT 17/08 A2988 RMK A01 T01730078  RH  053%=      5-min Rain = 0
KCH1 200259Z 17006KT 17/08 A2988 RMK A01 T01730078  RH  054%=      5-min Rain = 0
KCH1 200300Z 17007KT 17/08 A2988 RMK A01 T01730078  RH  054%=      5-min Rain = 0
KCH1 200301Z 17006KT 17/08 A2989 RMK A01 T01730078  RH  054%=      5-min Rain = 0
KCH1 200302Z 16006KT 17/08 A2989 RMK A01 T01720078  RH  054%=      5-min Rain = 0
KCH1 200303Z 16006KT 17/08 A2989 RMK A01 T01720078  RH  054%=      5-min Rain = 0
KCH1 200304Z 16008KT 17/08 A2989 RMK A01 T01710077  RH  054%=      5-min Rain = 0
KCH1 200305Z 17006KT 17/08 A2989 RMK A01 T01720078  RH  054%=      5-min Rain = 0
KCH1 200306Z 17006KT 17/08 A2989 RMK A01 T01720078  RH  054%=      5-min Rain = 0
KCH1 200307Z 17007KT 17/08 A2989 RMK A01 T01720078  RH  054%=      5-min Rain = 0
KCH1 200308Z 16008KT 17/08 A2989 RMK A01 T01720078  RH  054%=      5-min Rain = 0
KCH1 200309Z 16007KT 17/08 A2989 RMK A01 T01720078  RH  054%=      5-min Rain = 0
KCH1 200310Z 15006KT 17/08 A2989 RMK A01 T01730078  RH  054%=      5-min Rain = 0
KCH1 200311Z 16006KT 17/08 A2989 RMK A01 T01720078  RH  054%=      5-min Rain = 0
KCH1 200312Z 16006KT 17/08 A2989 RMK A01 T01720078  RH  054%=      5-min Rain = 0
KCH1 200313Z 16006KT 17/08 A2989 RMK A01 T01710078  RH  054%=      5-min Rain = 0
KCH1 200314Z 17006KT 17/08 A2989 RMK A01 T01700077  RH  054%=      5-min Rain = 0
KCH1 200315Z 16006KT 17/08 A2989 RMK A01 T01700078  RH  054%=      5-min Rain = 0
KCH1 200316Z 17006KT 17/08 A2989 RMK A01 T01690077  RH  055%=      5-min Rain = 0
KCH1 200317Z 17006KT 17/08 A2989 RMK A01 T01690077  RH  055%=      5-min Rain = 0
KCH1 200318Z 17006KT 17/08 A2989 RMK A01 T01690077  RH  055%=      5-min Rain = 0
KCH1 200319Z 17006KT 17/08 A2989 RMK A01 T01690077  RH  055%=      5-min Rain = 0
KCH1 200320Z 17007KT 17/08 A2989 RMK A01 T01690077  RH  055%=      5-min Rain = 0
KCH1 200321Z 16005KT 17/08 A2989 RMK A01 T01680077  RH  055%=      5-min Rain = 0
KCH1 200322Z 17006KT 17/08 A2989 RMK A01 T01690078  RH  055%=      5-min Rain = 0
KCH1 200323Z 16005KT 17/08 A2989 RMK A01 T01680078  RH  055%=      5-min Rain = 0
KCH1 200324Z 15004KT 17/08 A2989 RMK A01 T01670077  RH  055%=      5-min Rain = 0
KCH1 200325Z 15005KT 17/08 A2989 RMK A01 T01670077  RH  055%=      5-min Rain = 0
KCH1 200326Z 15006KT 17/08 A2989 RMK A01 T01670077  RH  055%=      5-min Rain = 0
KCH1 200327Z 15006KT 17/08 A2989 RMK A01 T01670077  RH  056%=      5-min Rain = 0
KCH1 200328Z 15006KT 17/08 A2989 RMK A01 T01670078  RH  056%=      5-min Rain = 0
KCH1 200329Z 15006KT 17/08 A299 RMK A01 T01660077  RH  056%=      5-min Rain = 0
KCH1 200330Z 16006KT 17/08 A299 RMK A01 T01660077  RH  056%=      5-min Rain = 0
KCH1 200331Z 15005KT 17/08 A299 RMK A01 T01650077  RH  056%=      5-min Rain = 0
KCH1 200332Z 16005KT 17/08 A299 RMK A01 T01650077  RH  056%=      5-min Rain = 0
KCH1 200333Z 16004KT 17/08 A299 RMK A01 T01650077  RH  056%=      5-min Rain = 0
KCH1 200334Z 17004KT 16/08 A299 RMK A01 T01640077  RH  056%=      5-min Rain = 0
KCH1 200335Z 17005KT 16/08 A299 RMK A01 T01640077  RH  057%=      5-min Rain = 0
KCH1 200336Z 17004KT 16/08 A299 RMK A01 T01630077  RH  057%=      5-min Rain = 0
KCH1 200337Z 17004KT 16/08 A299 RMK A01 T01620077  RH  057%=      5-min Rain = 0
KCH1 200338Z 16005KT 16/08 A299 RMK A01 T01630078  RH  057%=      5-min Rain = 0
KCH1 200339Z 16004KT 16/08 A299 RMK A01 T01620078  RH  057%=      5-min Rain = 0
KCH1 200340Z 16005KT 16/08 A299 RMK A01 T01620078  RH  057%=      5-min Rain = 0
KCH1 200341Z 15005KT 16/08 A299 RMK A01 T01620078  RH  058%=      5-min Rain = 0
KCH1 200342Z 15005KT 16/08 A299 RMK A01 T01610078  RH  058%=      5-min Rain = 0
KCH1 200343Z 14004KT 16/08 A299 RMK A01 T01610078  RH  058%=      5-min Rain = 0
KCH1 200344Z 14004KT 16/08 A299 RMK A01 T01610078  RH  058%=      5-min Rain = 0
KCH1 200345Z 13004KT 16/08 A299 RMK A01 T01600078  RH  058%=      5-min Rain = 0
KCH1 200346Z 14004KT 16/08 A299 RMK A01 T01600078  RH  058%=      5-min Rain = 0
KCH1 200347Z 13004KT 16/08 A299 RMK A01 T01580077  RH  059%=      5-min Rain = 0
KCH1 200348Z 13005KT 16/08 A299 RMK A01 T01580078  RH  059%=      5-min Rain = 0
KCH1 200349Z 13005KT 16/08 A299 RMK A01 T01580078  RH  059%=      5-min Rain = 0
KCH1 200350Z 14005KT 16/08 A299 RMK A01 T01570078  RH  059%=      5-min Rain = 0
KCH1 200351Z 14005KT 16/08 A299 RMK A01 T01570078  RH  059%=      5-min Rain = 0
KCH1 200352Z 13004KT 16/08 A299 RMK A01 T01570078  RH  059%=      5-min Rain = 0
KCH1 200353Z 13004KT 16/08 A299 RMK A01 T01570078  RH  059%=      5-min Rain = 0
KCH1 200354Z 13005KT 16/08 A299 RMK A01 T01570078  RH  059%=      5-min Rain = 0
KCH1 200355Z 13004KT 16/08 A299 RMK A01 T01560078  RH  060%=      5-min Rain = 0
KCH1 200356Z 13005KT 16/08 A299 RMK A01 T01560078  RH  060%=      5-min Rain = 0
KCH1 200357Z 14004KT 16/08 A299 RMK A01 T01560078  RH  059%=      5-min Rain = 0
KCH1 200358Z 12005KT 16/08 A299 RMK A01 T01570078  RH  059%=      5-min Rain = 0
KCH1 200359Z 12005KT 16/08 A299 RMK A01 T01570078  RH  060%=      5-min Rain = 0
KCH1 200400Z 12005KT 16/08 A299 RMK A01 T01560078  RH  060%=      5-min Rain = 0
KCH1 200401Z 13005KT 16/08 A299 RMK A01 T01560078  RH  060%=      5-min Rain = 0
KCH1 200402Z 13005KT 16/08 A299 RMK A01 T01560078  RH  060%=      5-min Rain = 0
KCH1 200403Z 13005KT 16/08 A299 RMK A01 T01560078  RH  060%=      5-min Rain = 0
KCH1 200404Z 13005KT 16/08 A2989 RMK A01 T01550078  RH  060%=      5-min Rain = 0
KCH1 200405Z 13005KT 16/08 A2989 RMK A01 T01550078  RH  060%=      5-min Rain = 0
KCH1 200406Z 13005KT 16/08 A2989 RMK A01 T01550078  RH  060%=      5-min Rain = 0
KCH1 200407Z 13005KT 16/08 A2989 RMK A01 T01550078  RH  060%=      5-min Rain = 0
KCH1 200408Z 13005KT 15/08 A2989 RMK A01 T01540078  RH  061%=      5-min Rain = 0
KCH1 200409Z 13005KT 15/08 A2989 RMK A01 T01540078  RH  061%=      5-min Rain = 0
KCH1 200410Z 13004KT 15/08 A2989 RMK A01 T01530078  RH  061%=      5-min Rain = 0
KCH1 200411Z 12005KT 15/08 A2989 RMK A01 T01530078  RH  061%=      5-min Rain = 0
KCH1 200412Z 13005KT 15/08 A2989 RMK A01 T01530079  RH  061%=      5-min Rain = 0
KCH1 200413Z 13005KT 15/08 A2989 RMK A01 T01520078  RH  061%=      5-min Rain = 0
KCH1 200414Z 13005KT 15/08 A2989 RMK A01 T01520079  RH  062%=      5-min Rain = 0
KCH1 200415Z 12005KT 15/08 A2989 RMK A01 T01510078  RH  062%=      5-min Rain = 0
KCH1 200416Z 13006KT 15/08 A2989 RMK A01 T01510078  RH  062%=      5-min Rain = 0
KCH1 200417Z 13006KT 15/08 A2989 RMK A01 T01500078  RH  062%=      5-min Rain = 0
KCH1 200418Z 14005KT 15/08 A2989 RMK A01 T01500078  RH  062%=      5-min Rain = 0
KCH1 200419Z 14004KT 15/08 A2989 RMK A01 T01500079  RH  062%=      5-min Rain = 0
KCH1 200420Z 14004KT 15/08 A2989 RMK A01 T01500079  RH  062%=      5-min Rain = 0
KCH1 200421Z 14004KT 15/08 A2989 RMK A01 T01500079  RH  062%=      5-min Rain = 0
KCH1 200422Z 14004KT 15/08 A2989 RMK A01 T01500079  RH  062%=      5-min Rain = 0
KCH1 200423Z 14003KT 15/08 A2989 RMK A01 T01500079  RH  062%=      5-min Rain = 0
KCH1 200424Z 13002KT 15/08 A2989 RMK A01 T01500079  RH  062%=      5-min Rain = 0
KCH1 200425Z 14002KT 15/08 A2989 RMK A01 T01500079  RH  062%=      5-min Rain = 0
KCH1 200426Z 15002KT 15/08 A2989 RMK A01 T01490078  RH  063%=      5-min Rain = 0
KCH1 200427Z 15002KT 15/08 A2989 RMK A01 T01490078  RH  063%=      5-min Rain = 0
KCH1 200428Z 15002KT 15/08 A2989 RMK A01 T01500078  RH  062%=      5-min Rain = 0
KCH1 200429Z 17003KT 15/08 A2989 RMK A01 T01500078  RH  062%=      5-min Rain = 0
KCH1 200430Z 16003KT 15/08 A2989 RMK A01 T01500079  RH  062%=      5-min Rain = 0
KCH1 200431Z 18003KT 15/08 A2989 RMK A01 T01500079  RH  062%=      5-min Rain = 0
KCH1 200432Z 18004KT 15/08 A2989 RMK A01 T01500079  RH  062%=      5-min Rain = 0
KCH1 200433Z 18004KT 15/08 A2989 RMK A01 T01510079  RH  062%=      5-min Rain = 0
KCH1 200434Z 19005KT 15/08 A2989 RMK A01 T01520080  RH  062%=      5-min Rain = 0
KCH1 200435Z 19005KT 15/08 A2989 RMK A01 T01540081  RH  062%=      5-min Rain = 0
KCH1 200436Z 20005KT 16/08 A2989 RMK A01 T01560082  RH  062%=      5-min Rain = 0
KCH1 200437Z 19006KT 16/08 A2989 RMK A01 T01580083  RH  061%=      5-min Rain = 0
KCH1 200438Z 19006KT 16/08 A2989 RMK A01 T01600084  RH  060%=      5-min Rain = 0
KCH1 200439Z 19008KT 16/08 A2989 RMK A01 T01620084  RH  060%=      5-min Rain = 0
KCH1 200440Z 19007KT 16/08 A2989 RMK A01 T01640084  RH  059%=      5-min Rain = 0
KCH1 200441Z 19007KT 17/09 A2989 RMK A01 T01650085  RH  059%=      5-min Rain = 0
KCH1 200442Z 19006KT 17/08 A2989 RMK A01 T01660084  RH  058%=      5-min Rain = 0
KCH1 200443Z 19006KT 17/09 A2989 RMK A01 T01670085  RH  058%=      5-min Rain = 0
KCH1 200444Z 19006KT 17/08 A2989 RMK A01 T01660084  RH  058%=      5-min Rain = 0
KCH1 200445Z 19007KT 17/08 A2989 RMK A01 T01660084  RH  058%=      5-min Rain = 0
KCH1 200446Z 19005KT 17/08 A2989 RMK A01 T01660084  RH  058%=      5-min Rain = 0
KCH1 200447Z 18006KT 17/09 A2989 RMK A01 T01670085  RH  058%=      5-min Rain = 0
KCH1 200448Z 18005KT 17/08 A2989 RMK A01 T01670084  RH  058%=      5-min Rain = 0
KCH1 200449Z 19005KT 17/08 A2989 RMK A01 T01660084  RH  058%=      5-min Rain = 0
KCH1 200450Z 18005KT 17/08 A2989 RMK A01 T01660084  RH  059%=      5-min Rain = 0
KCH1 200451Z 18004KT 17/08 A2989 RMK A01 T01650084  RH  059%=      5-min Rain = 0
KCH1 200452Z 18005KT 17/08 A2989 RMK A01 T01650084  RH  059%=      5-min Rain = 0
KCH1 200453Z 18006KT 17/09 A2989 RMK A01 T01650085  RH  059%=      5-min Rain = 0
KCH1 200454Z 18006KT 16/09 A2989 RMK A01 T01640085  RH  059%=      5-min Rain = 0
KCH1 200455Z 18006KT 16/09 A2989 RMK A01 T01640085  RH  059%=      5-min Rain = 0
KCH1 200456Z 18005KT 16/09 A2989 RMK A01 T01640085  RH  059%=      5-min Rain = 0
KCH1 200457Z 18005KT 16/09 A2989 RMK A01 T01640085  RH  060%=      5-min Rain = 0
KCH1 200458Z 18005G10KT 16/09 A2989 RMK A01 T01640086  RH  060%=      5-min Rain = 0
KCH1 200459Z 18007KT 16/09 A2989 RMK A01 T01640086  RH  060%=      5-min Rain = 0
KCH1 200500Z 18006KT 16/09 A2989 RMK A01 T01640086  RH  060%=      5-min Rain = 0
KCH1 200501Z 18006KT 16/09 A2989 RMK A01 T01640087  RH  060%=      5-min Rain = 0
KCH1 200502Z 18005KT 16/09 A2989 RMK A01 T01640087  RH  060%=      5-min Rain = 0
KCH1 200503Z 17005KT 16/09 A2989 RMK A01 T01640087  RH  060%=      5-min Rain = 0
KCH1 200504Z 18005KT 16/09 A2989 RMK A01 T01630087  RH  061%=      5-min Rain = 0
KCH1 200505Z 17007KT 16/09 A2989 RMK A01 T01630088  RH  061%=      5-min Rain = 0
KCH1 200506Z 17006KT 16/09 A2989 RMK A01 T01630088  RH  061%=      5-min Rain = 0
KCH1 200507Z 18007KT 16/09 A2989 RMK A01 T01630089  RH  061%=      5-min Rain = 0
KCH1 200508Z 17007KT 16/09 A2989 RMK A01 T01640089  RH  061%=      5-min Rain = 0
KCH1 200509Z 17007KT 16/09 A2989 RMK A01 T01640090  RH  061%=      5-min Rain = 0
KCH1 200510Z 17005KT 16/09 A2989 RMK A01 T01640090  RH  061%=      5-min Rain = 0
KCH1 200511Z 18005KT 16/09 A2989 RMK A01 T01640090  RH  061%=      5-min Rain = 0
KCH1 200512Z 18006KT 16/09 A2989 RMK A01 T01640090  RH  062%=      5-min Rain = 0
KCH1 200513Z 18006KT 16/09 A2989 RMK A01 T01630090  RH  062%=      5-min Rain = 0
KCH1 200514Z 18007KT 16/09 A2989 RMK A01 T01630090  RH  062%=      5-min Rain = 0
KCH1 200515Z 18007KT 16/09 A2989 RMK A01 T01630090  RH  062%=      5-min Rain = 0
KCH1 200516Z 18005KT 16/09 A2989 RMK A01 T01640091  RH  062%=      5-min Rain = 0
KCH1 200517Z 18007KT 16/09 A2989 RMK A01 T01640091  RH  062%=      5-min Rain = 0
KCH1 200518Z 18007KT 16/09 A2989 RMK A01 T01630091  RH  062%=      5-min Rain = 0
KCH1 200519Z 19007KT 16/09 A2989 RMK A01 T01630091  RH  062%=      5-min Rain = 0
KCH1 200520Z 19006KT 16/09 A2989 RMK A01 T01630091  RH  062%=      5-min Rain = 0
KCH1 200521Z 19007KT 16/09 A2989 RMK A01 T01630092  RH  062%=      5-min Rain = 0
KCH1 200522Z 18007KT 16/09 A2989 RMK A01 T01630092  RH  063%=      5-min Rain = 0
KCH1 200523Z 18006KT 16/09 A2989 RMK A01 T01640093  RH  063%=      5-min Rain = 0
KCH1 200524Z 18009KT 16/09 A2989 RMK A01 T01640093  RH  063%=      5-min Rain = 0
KCH1 200525Z 18009KT 16/09 A2989 RMK A01 T01640093  RH  063%=      5-min Rain = 0
KCH1 200526Z 18009KT 17/09 A2989 RMK A01 T01650093  RH  062%=      5-min Rain = 0
KCH1 200527Z 18007KT 17/09 A2989 RMK A01 T01660094  RH  062%=      5-min Rain = 0
KCH1 200528Z 18008KT 17/09 A2989 RMK A01 T01660094  RH  062%=      5-min Rain = 0
KCH1 200529Z 18007KT 17/09 A2989 RMK A01 T01660094  RH  062%=      5-min Rain = 0
KCH1 200530Z 18008KT 17/09 A2989 RMK A01 T01660094  RH  062%=      5-min Rain = 0
KCH1 200531Z 18008KT 17/09 A2989 RMK A01 T01660094  RH  062%=      5-min Rain = 0
KCH1 200532Z 18009KT 17/09 A2989 RMK A01 T01670094  RH  062%=      5-min Rain = 0
KCH1 200533Z 18007KT 17/10 A2989 RMK A01 T01670095  RH  062%=      5-min Rain = 0
KCH1 200534Z 17007KT 17/10 A2989 RMK A01 T01670095  RH  062%=      5-min Rain = 0
KCH1 200535Z 17007KT 17/10 A2989 RMK A01 T01670095  RH  062%=      5-min Rain = 0
KCH1 200536Z 17007KT 17/10 A2989 RMK A01 T01670095  RH  062%=      5-min Rain = 0
KCH1 200537Z 17006KT 17/10 A2989 RMK A01 T01660095  RH  063%=      5-min Rain = 0
KCH1 200538Z 17006KT 17/10 A2989 RMK A01 T01660095  RH  063%=      5-min Rain = 0
KCH1 200539Z 17007KT 17/10 A2989 RMK A01 T01660095  RH  063%=      5-min Rain = 0
KCH1 200540Z 16005KT 17/10 A2989 RMK A01 T01650095  RH  063%=      5-min Rain = 0
KCH1 200541Z 16005KT 17/10 A2989 RMK A01 T01650095  RH  063%=      5-min Rain = 0
KCH1 200542Z 16006KT 16/09 A2989 RMK A01 T01640094  RH  063%=      5-min Rain = 0
KCH1 200543Z 16006KT 16/09 A2989 RMK A01 T01630093  RH  063%=      5-min Rain = 0
KCH1 200544Z 16006KT 16/09 A2989 RMK A01 T01630093  RH  063%=      5-min Rain = 0
KCH1 200545Z 15006KT 16/09 A2989 RMK A01 T01620092  RH  063%=      5-min Rain = 0
KCH1 200546Z 15006KT 16/09 A2989 RMK A01 T01620091  RH  063%=      5-min Rain = 0
KCH1 200547Z 15005KT 16/09 A2989 RMK A01 T01610090  RH  063%=      5-min Rain = 0
KCH1 200548Z 14005KT 16/09 A2989 RMK A01 T01590090  RH  063%=      5-min Rain = 0
KCH1 200549Z 15006KT 16/09 A2989 RMK A01 T01580089  RH  064%=      5-min Rain = 0
KCH1 200550Z 15005KT 16/09 A2989 RMK A01 T01570089  RH  064%=      5-min Rain = 0
KCH1 200551Z 15005KT 16/09 A2989 RMK A01 T01570089  RH  064%=      5-min Rain = 0
KCH1 200552Z 15005KT 16/09 A2989 RMK A01 T01560088  RH  064%=      5-min Rain = 0
KCH1 200553Z 15006KT 16/09 A2989 RMK A01 T01550088  RH  064%=      5-min Rain = 0
KCH1 200554Z 15005KT 15/09 A2989 RMK A01 T01540088  RH  065%=      5-min Rain = 0
KCH1 200555Z 15005KT 15/09 A2989 RMK A01 T01530087  RH  065%=      5-min Rain = 0
KCH1 200556Z 15005KT 15/09 A2989 RMK A01 T01530087  RH  065%=      5-min Rain = 0
KCH1 200557Z 14005KT 15/09 A2989 RMK A01 T01520087  RH  065%=      5-min Rain = 0
KCH1 200558Z 14005KT 15/09 A2989 RMK A01 T01520087  RH  065%=      5-min Rain = 0
KCH1 200559Z 14005KT 15/09 A2989 RMK A01 T01510087  RH  066%=      5-min Rain = 0

Page generated in 0.1363 seconds.